Time,TemperatureF,DewpointF,PressureIn,WindDirection,WindDirectionDegrees,WindSpeedMPH,WindSpeedGustMPH,Humidity,HourlyPrecipIn,Conditions,Clouds,dailyrainin,SolarRadiationWatts/m^2,SoftwareType,DateUTC
2013-01-11 00:00:00,40.0,34.3,29.68,North,351,0.0,0.0,80,0.00,,CLR,0.00,0.00,VWS V14.01,2013-01-11 08:00:00,
2013-01-11 00:03:00,39.8,34.1,29.68,North,351,0.0,0.0,80,0.00,,CLR,0.00,0.00,VWS V14.01,2013-01-11 08:03:00,
2013-01-11 00:04:00,39.7,34.0,29.68,North,351,0.0,0.0,80,0.00,,CLR,0.00,0.00,VWS V14.01,2013-01-11 08:04:00,
2013-01-11 00:05:00,39.6,34.0,29.68,North,351,0.0,0.0,80,0.00,,CLR,0.00,0.00,VWS V14.01,2013-01-11 08:05:00,
2013-01-11 00:08:00,39.4,33.8,29.68,North,351,0.0,0.0,80,0.00,,CLR,0.00,0.00,VWS V14.01,2013-01-11 08:08:00,
2013-01-11 00:09:00,39.2,33.9,29.68,North,351,0.0,0.0,81,0.00,,CLR,0.00,0.00,VWS V14.01,2013-01-11 08:09:00,
2013-01-11 00:10:00,39.1,33.5,29.68,North,351,0.0,0.0,80,0.00,,CLR,0.00,0.00,VWS V14.01,2013-01-11 08:10:00,
2013-01-11 00:13:00,38.9,33.6,29.68,North,351,0.0,0.0,81,0.00,,CLR,0.00,0.00,VWS V14.01,2013-01-11 08:13:00,
2013-01-11 00:14:00,38.8,33.5,29.68,North,351,0.0,0.0,81,0.00,,CLR,0.00,0.00,VWS V14.01,2013-01-11 08:14:00,
2013-01-11 00:16:00,38.6,33.3,29.68,North,351,0.0,0.0,81,0.00,,CLR,0.00,0.00,VWS V14.01,2013-01-11 08:16:00,
2013-01-11 00:18:00,38.5,33.2,29.68,North,351,0.0,0.0,81,0.00,,CLR,0.00,0.00,VWS V14.01,2013-01-11 08:18:00,
2013-01-11 00:19:00,38.4,33.4,29.68,North,351,0.0,0.0,82,0.00,,CLR,0.00,0.00,VWS V14.01,2013-01-11 08:19:00,
2013-01-11 00:20:00,38.4,33.4,29.68,North,351,0.0,0.0,82,0.00,,CLR,0.00,0.00,VWS V14.01,2013-01-11 08:20:00,
2013-01-11 00:21:00,38.3,33.3,29.68,North,351,0.0,0.0,82,0.00,,CLR,0.00,0.00,VWS V14.01,2013-01-11 08:21:00,
2013-01-11 00:23:00,38.3,33.3,29.69,North,351,0.0,1.0,82,0.00,,CLR,0.00,0.00,VWS V14.01,2013-01-11 08:23:00,
2013-01-11 00:24:00,38.3,33.3,29.69,North,351,0.0,1.0,82,0.00,,CLR,0.00,0.00,VWS V14.01,2013-01-11 08:24:00,
2013-01-11 00:26:00,38.2,33.2,29.68,North,351,0.0,1.0,82,0.00,,CLR,0.00,0.00,VWS V14.01,2013-01-11 08:26:00,
2013-01-11 00:28:00,38.2,33.2,29.69,North,351,0.0,1.0,82,0.00,,CLR,0.00,0.00,VWS V14.01,2013-01-11 08:28:00,
2013-01-11 00:29:00,38.1,33.1,29.69,North,351,0.0,1.0,82,0.00,,CLR,0.00,0.00,VWS V14.01,2013-01-11 08:29:00,
2013-01-11 00:30:00,38.1,33.1,29.69,North,351,0.0,1.0,82,0.00,,CLR,0.00,0.00,VWS V14.01,2013-01-11 08:30:00,
2013-01-11 00:31:00,38.1,33.1,29.69,North,351,0.0,1.0,82,0.00,,CLR,0.00,0.00,VWS V14.01,2013-01-11 08:31:00,
2013-01-11 00:33:00,38.1,33.1,29.68,North,351,0.0,1.0,82,0.00,,CLR,0.00,0.00,VWS V14.01,2013-01-11 08:33:00,
2013-01-11 00:34:00,38.0,33.0,29.68,North,349,0.0,1.0,82,0.00,,CLR,0.00,0.00,VWS V14.01,2013-01-11 08:34:00,
2013-01-11 00:36:00,38.0,33.3,29.68,North,349,0.0,1.0,83,0.00,,CLR,0.00,0.00,VWS V14.01,2013-01-11 08:36:00,
2013-01-11 00:38:00,38.0,33.3,29.68,North,349,0.0,1.0,83,0.00,,CLR,0.00,0.00,VWS V14.01,2013-01-11 08:38:00,
2013-01-11 00:39:00,38.1,33.4,29.68,North,350,0.0,1.0,83,0.00,,CLR,0.00,0.00,VWS V14.01,2013-01-11 08:39:00,
2013-01-11 00:40:00,38.0,33.3,29.68,North,350,0.0,1.0,83,0.00,,CLR,0.00,0.00,VWS V14.01,2013-01-11 08:40:00,
2013-01-11 00:41:00,38.1,33.4,29.68,North,350,0.0,1.0,83,0.00,,CLR,0.00,0.00,VWS V14.01,2013-01-11 08:41:00,
2013-01-11 00:43:00,38.2,33.5,29.68,NNW,338,0.0,5.0,83,0.00,,CLR,0.00,0.00,VWS V14.01,2013-01-11 08:43:00,
2013-01-11 00:44:00,38.2,33.5,29.68,NNW,338,0.0,5.0,83,0.00,,CLR,0.00,0.00,VWS V14.01,2013-01-11 08:44:00,
2013-01-11 00:46:00,38.3,33.3,29.68,NNW,330,0.0,5.0,82,0.00,,CLR,0.00,0.00,VWS V14.01,2013-01-11 08:46:00,
2013-01-11 00:48:00,38.4,33.4,29.68,NNW,331,0.0,5.0,82,0.00,,CLR,0.00,0.00,VWS V14.01,2013-01-11 08:48:00,
2013-01-11 00:49:00,38.4,33.4,29.68,NNW,331,0.0,5.0,82,0.00,,CLR,0.00,0.00,VWS V14.01,2013-01-11 08:49:00,
2013-01-11 00:50:00,38.5,33.5,29.68,NNW,331,0.0,5.0,82,0.00,,CLR,0.00,0.00,VWS V14.01,2013-01-11 08:50:00,
2013-01-11 00:51:00,38.5,33.5,29.68,NNW,331,0.0,0.0,82,0.00,,CLR,0.00,0.00,VWS V14.01,2013-01-11 08:51:00,
2013-01-11 00:54:00,38.4,33.4,29.68,NNW,331,0.0,0.0,82,0.00,,CLR,0.00,0.00,VWS V14.01,2013-01-11 08:54:00,
2013-01-11 00:55:00,38.4,33.4,29.68,NNW,331,0.0,0.0,82,0.00,,CLR,0.00,0.00,VWS V14.01,2013-01-11 08:55:00,
2013-01-11 00:57:00,38.3,33.3,29.68,NNW,331,0.0,0.0,82,0.00,,CLR,0.00,0.00,VWS V14.01,2013-01-11 08:57:00,
2013-01-11 00:59:00,38.3,33.3,29.68,NNW,331,0.0,0.0,82,0.00,,CLR,0.00,0.00,VWS V14.01,2013-01-11 08:59:00,
2013-01-11 01:00:00,38.3,33.3,29.68,NNW,331,0.0,0.0,82,0.00,,CLR,0.00,0.00,VWS V14.01,2013-01-11 09:00:00,
2013-01-11 01:02:00,38.3,33.3,29.68,NNW,331,0.0,0.0,82,0.00,,CLR,0.00,0.00,VWS V14.01,2013-01-11 09:02:00,
2013-01-11 01:04:00,38.2,33.2,29.68,NNW,346,0.0,0.0,82,0.00,,CLR,0.00,0.00,VWS V14.01,2013-01-11 09:04:00,
2013-01-11 01:05:00,38.2,33.2,29.68,NNW,346,0.0,1.0,82,0.00,,CLR,0.00,0.00,VWS V14.01,2013-01-11 09:05:00,
2013-01-11 01:07:00,38.2,33.2,29.68,NNW,346,0.0,1.0,82,0.00,,CLR,0.00,0.00,VWS V14.01,2013-01-11 09:07:00,
2013-01-11 01:09:00,38.1,33.1,29.68,North,5,2.0,2.0,82,0.00,,CLR,0.00,0.00,VWS V14.01,2013-01-11 09:09:00,
2013-01-11 01:10:00,38.2,33.5,29.68,North,355,1.0,1.0,83,0.00,,CLR,0.00,0.00,VWS V14.01,2013-01-11 09:10:00,
2013-01-11 01:12:00,38.3,33.3,29.68,WNW,287,0.0,4.0,82,0.00,,CLR,0.00,0.00,VWS V14.01,2013-01-11 09:12:00,
2013-01-11 01:14:00,38.6,33.6,29.68,North,9,0.0,4.0,82,0.00,,CLR,0.00,0.00,VWS V14.01,2013-01-11 09:14:00,
2013-01-11 01:15:00,38.7,33.7,29.68,North,9,0.0,4.0,82,0.00,,CLR,0.00,0.00,VWS V14.01,2013-01-11 09:15:00,
2013-01-11 01:17:00,38.8,33.5,29.68,North,9,0.0,4.0,81,0.00,,CLR,0.00,0.00,VWS V14.01,2013-01-11 09:17:00,
2013-01-11 01:19:00,39.0,33.7,29.68,North,9,0.0,4.0,81,0.00,,CLR,0.00,0.00,VWS V14.01,2013-01-11 09:19:00,
2013-01-11 01:20:00,39.1,33.8,29.68,North,9,0.0,0.0,81,0.00,,CLR,0.00,0.00,VWS V14.01,2013-01-11 09:20:00,
2013-01-11 01:22:00,39.1,33.8,29.68,NNE,13,0.0,2.0,81,0.00,,CLR,0.00,0.00,VWS V14.01,2013-01-11 09:22:00,
2013-01-11 01:24:00,39.2,33.6,29.68,NW,319,0.0,4.0,80,0.00,,CLR,0.00,0.00,VWS V14.01,2013-01-11 09:24:00,
2013-01-11 01:25:00,39.3,33.7,29.68,NE,49,2.0,4.0,80,0.00,,CLR,0.00,0.00,VWS V14.01,2013-01-11 09:25:00,
2013-01-11 01:27:00,39.3,33.7,29.68,NNE,17,0.0,4.0,80,0.00,,CLR,0.00,0.00,VWS V14.01,2013-01-11 09:27:00,
2013-01-11 01:29:00,39.5,33.8,29.68,North,360,0.0,5.0,80,0.00,,CLR,0.00,0.00,VWS V14.01,2013-01-11 09:29:00,
2013-01-11 01:30:00,39.5,33.5,29.68,WSW,243,1.0,5.0,79,0.00,,CLR,0.00,0.00,VWS V14.01,2013-01-11 09:30:00,
2013-01-11 01:32:00,39.7,33.7,29.68,NNE,25,1.0,5.0,79,0.00,,CLR,0.00,0.00,VWS V14.01,2013-01-11 09:32:00,
2013-01-11 01:34:00,39.8,33.8,29.68,NNE,25,0.0,5.0,79,0.00,,CLR,0.00,0.00,VWS V14.01,2013-01-11 09:34:00,
2013-01-11 01:35:00,39.8,33.8,29.68,ENE,74,0.0,5.0,79,0.00,,CLR,0.00,0.00,VWS V14.01,2013-01-11 09:35:00,
2013-01-11 01:37:00,39.8,33.5,29.68,NNE,24,0.0,5.0,78,0.00,,CLR,0.00,0.00,VWS V14.01,2013-01-11 09:37:00,
2013-01-11 01:39:00,39.9,33.6,29.68,NNE,22,0.0,5.0,78,0.00,,CLR,0.00,0.00,VWS V14.01,2013-01-11 09:39:00,
2013-01-11 01:40:00,39.8,33.5,29.68,NNE,21,0.0,5.0,78,0.00,,CLR,0.00,0.00,VWS V14.01,2013-01-11 09:40:00,
2013-01-11 01:42:00,39.9,33.6,29.68,NNE,15,0.0,2.0,78,0.00,,CLR,0.00,0.00,VWS V14.01,2013-01-11 09:42:00,
2013-01-11 01:45:00,39.8,33.5,29.68,NNE,15,0.0,2.0,78,0.00,,CLR,0.00,0.00,VWS V14.01,2013-01-11 09:45:00,
2013-01-11 01:46:00,39.8,33.5,29.68,NNE,15,0.0,2.0,78,0.00,,CLR,0.00,0.00,VWS V14.01,2013-01-11 09:46:00,
2013-01-11 01:47:00,39.7,33.4,29.68,NW,319,0.0,2.0,78,0.00,,CLR,0.00,0.00,VWS V14.01,2013-01-11 09:47:00,
2013-01-11 01:50:00,39.6,33.3,29.68,NW,322,0.0,2.0,78,0.00,,CLR,0.00,0.00,VWS V14.01,2013-01-11 09:50:00,
2013-01-11 01:51:00,39.6,33.3,29.68,NW,322,0.0,0.0,78,0.00,,CLR,0.00,0.00,VWS V14.01,2013-01-11 09:51:00,
2013-01-11 01:52:00,39.5,33.5,29.68,NNW,347,0.0,1.0,79,0.00,,CLR,0.00,0.00,VWS V14.01,2013-01-11 09:52:00,
2013-01-11 01:55:00,39.4,33.4,29.68,NNW,347,0.0,1.0,79,0.00,,CLR,0.00,0.00,VWS V14.01,2013-01-11 09:55:00,
2013-01-11 01:56:00,39.3,33.0,29.68,NNW,348,0.0,2.0,78,0.00,,CLR,0.00,0.00,VWS V14.01,2013-01-11 09:56:00,
2013-01-11 01:57:00,39.3,33.0,29.68,North,349,0.0,2.0,78,0.00,,CLR,0.00,0.00,VWS V14.01,2013-01-11 09:57:00,
2013-01-11 02:00:00,39.3,33.0,29.68,North,360,0.0,3.0,78,0.00,,CLR,0.00,0.00,VWS V14.01,2013-01-11 10:00:00,
2013-01-11 02:01:00,39.3,33.0,29.68,North,360,0.0,1.0,78,0.00,,CLR,0.00,0.00,VWS V14.01,2013-01-11 10:01:00,
2013-01-11 02:02:00,39.3,33.0,29.68,North,360,0.0,1.0,78,0.00,,CLR,0.00,0.00,VWS V14.01,2013-01-11 10:02:00,
2013-01-11 02:05:00,39.3,33.3,29.68,North,360,0.0,1.0,79,0.00,,CLR,0.00,0.00,VWS V14.01,2013-01-11 10:05:00,
2013-01-11 02:06:00,39.2,33.2,29.68,North,360,1.0,1.0,79,0.00,,CLR,0.00,0.00,VWS V14.01,2013-01-11 10:06:00,
2013-01-11 02:07:00,39.2,33.2,29.68,North,5,0.0,3.0,79,0.00,,CLR,0.00,0.00,VWS V14.01,2013-01-11 10:07:00,
2013-01-11 02:10:00,39.2,33.2,29.68,NNW,331,0.0,3.0,79,0.00,,CLR,0.00,0.00,VWS V14.01,2013-01-11 10:10:00,
2013-01-11 02:11:00,39.2,33.2,29.68,NNW,333,0.0,1.0,79,0.00,,CLR,0.00,0.00,VWS V14.01,2013-01-11 10:11:00,
2013-01-11 02:12:00,39.2,33.2,29.68,ESE,102,2.0,2.0,79,0.00,,CLR,0.00,0.00,VWS V14.01,2013-01-11 10:12:00,
2013-01-11 02:15:00,39.1,33.2,29.68,North,5,0.0,2.0,79,0.00,,CLR,0.00,0.00,VWS V14.01,2013-01-11 10:15:00,
2013-01-11 02:16:00,39.1,33.2,29.68,North,5,0.0,2.0,79,0.00,,CLR,0.00,0.00,VWS V14.01,2013-01-11 10:16:00,
2013-01-11 02:18:00,39.1,33.2,29.68,North,5,0.0,2.0,79,0.00,,CLR,0.00,0.00,VWS V14.01,2013-01-11 10:18:00,
2013-01-11 02:20:00,39.1,33.2,29.68,North,5,0.0,2.0,79,0.00,,CLR,0.00,0.00,VWS V14.01,2013-01-11 10:20:00,
2013-01-11 02:21:00,39.1,33.2,29.68,North,5,0.0,3.0,79,0.00,,CLR,0.00,0.00,VWS V14.01,2013-01-11 10:21:00,
2013-01-11 02:23:00,39.0,33.0,29.68,North,5,0.0,3.0,79,0.00,,CLR,0.00,0.00,VWS V14.01,2013-01-11 10:23:00,
2013-01-11 02:25:00,38.9,33.3,29.68,North,5,0.0,3.0,80,0.00,,CLR,0.00,0.00,VWS V14.01,2013-01-11 10:25:00,
2013-01-11 02:26:00,38.8,33.2,29.68,North,5,0.0,3.0,80,0.00,,CLR,0.00,0.00,VWS V14.01,2013-01-11 10:26:00,
2013-01-11 02:28:00,38.7,33.1,29.68,North,5,0.0,3.0,80,0.00,,CLR,0.00,0.00,VWS V14.01,2013-01-11 10:28:00,
2013-01-11 02:30:00,38.5,32.9,29.68,North,5,0.0,0.0,80,0.00,,CLR,0.00,0.00,VWS V14.01,2013-01-11 10:30:00,
2013-01-11 02:31:00,38.4,32.8,29.68,North,5,0.0,0.0,80,0.00,,CLR,0.00,0.00,VWS V14.01,2013-01-11 10:31:00,
2013-01-11 02:33:00,38.3,33.0,29.68,North,5,0.0,0.0,81,0.00,,CLR,0.00,0.00,VWS V14.01,2013-01-11 10:33:00,
2013-01-11 02:35:00,38.2,32.9,29.68,North,5,0.0,0.0,81,0.00,,CLR,0.00,0.00,VWS V14.01,2013-01-11 10:35:00,
2013-01-11 02:36:00,38.2,32.9,29.68,North,5,0.0,0.0,81,0.00,,CLR,0.00,0.00,VWS V14.01,2013-01-11 10:36:00,
2013-01-11 02:38:00,38.1,32.8,29.68,North,5,0.0,0.0,81,0.00,,CLR,0.00,0.00,VWS V14.01,2013-01-11 10:38:00,
2013-01-11 02:40:00,37.9,32.6,29.68,North,5,0.0,0.0,81,0.00,,CLR,0.00,0.00,VWS V14.01,2013-01-11 10:40:00,
2013-01-11 02:41:00,37.9,32.6,29.68,North,5,0.0,0.0,81,0.00,,CLR,0.00,0.00,VWS V14.01,2013-01-11 10:41:00,
2013-01-11 02:43:00,37.8,32.8,29.68,North,5,0.0,1.0,82,0.00,,CLR,0.00,0.00,VWS V14.01,2013-01-11 10:43:00,
2013-01-11 02:45:00,37.7,32.7,29.68,North,5,0.0,1.0,82,0.00,,CLR,0.00,0.00,VWS V14.01,2013-01-11 10:45:00,
2013-01-11 02:46:00,37.7,32.7,29.68,North,5,0.0,1.0,82,0.00,,CLR,0.00,0.00,VWS V14.01,2013-01-11 10:46:00,
2013-01-11 02:49:00,37.5,32.5,29.68,North,5,0.0,1.0,82,0.00,,CLR,0.00,0.00,VWS V14.01,2013-01-11 10:49:00,
2013-01-11 02:50:00,37.4,32.4,29.68,North,5,0.0,0.0,82,0.00,,CLR,0.00,0.00,VWS V14.01,2013-01-11 10:50:00,
2013-01-11 02:51:00,37.4,32.4,29.68,North,5,0.0,0.0,82,0.00,,CLR,0.00,0.00,VWS V14.01,2013-01-11 10:51:00,
2013-01-11 02:54:00,37.2,32.5,29.68,North,5,0.0,0.0,83,0.00,,CLR,0.00,0.00,VWS V14.01,2013-01-11 10:54:00,
2013-01-11 02:55:00,37.1,32.4,29.68,North,5,0.0,0.0,83,0.00,,CLR,0.00,0.00,VWS V14.01,2013-01-11 10:55:00,
2013-01-11 02:56:00,37.1,32.4,29.68,North,5,0.0,0.0,83,0.00,,CLR,0.00,0.00,VWS V14.01,2013-01-11 10:56:00,
2013-01-11 02:59:00,37.0,32.3,29.68,North,5,0.0,0.0,83,0.00,,CLR,0.00,0.00,VWS V14.01,2013-01-11 10:59:00,
2013-01-11 03:00:00,36.9,32.2,29.68,North,5,0.0,0.0,83,0.00,,CLR,0.00,0.00,VWS V14.01,2013-01-11 11:00:00,
2013-01-11 03:01:00,36.9,32.2,29.68,North,5,0.0,0.0,83,0.00,,CLR,0.00,0.00,VWS V14.01,2013-01-11 11:01:00,
2013-01-11 03:04:00,36.6,32.2,29.68,North,5,0.0,0.0,84,0.00,,CLR,0.00,0.00,VWS V14.01,2013-01-11 11:04:00,
2013-01-11 03:06:00,36.5,32.1,29.68,North,5,0.0,0.0,84,0.00,,CLR,0.00,0.00,VWS V14.01,2013-01-11 11:06:00,
2013-01-11 03:07:00,36.4,32.0,29.67,North,5,0.0,0.0,84,0.00,,CLR,0.00,0.00,VWS V14.01,2013-01-11 11:07:00,
2013-01-11 03:09:00,36.2,32.1,29.67,North,5,0.0,0.0,85,0.00,,CLR,0.00,0.00,VWS V14.01,2013-01-11 11:09:00,
2013-01-11 03:10:00,36.2,32.1,29.67,North,5,0.0,0.0,85,0.00,,CLR,0.00,0.00,VWS V14.01,2013-01-11 11:10:00,
2013-01-11 03:11:00,36.1,32.0,29.67,North,5,0.0,0.0,85,0.00,,CLR,0.00,0.00,VWS V14.01,2013-01-11 11:11:00,
2013-01-11 03:12:00,36.1,32.0,29.67,North,5,0.0,0.0,85,0.00,,CLR,0.00,0.00,VWS V14.01,2013-01-11 11:12:00,
2013-01-11 03:14:00,36.0,32.2,29.67,North,5,0.0,0.0,86,0.00,,CLR,0.00,0.00,VWS V14.01,2013-01-11 11:14:00,
2013-01-11 03:16:00,35.9,32.1,29.67,North,5,0.0,0.0,86,0.00,,CLR,0.00,0.00,VWS V14.01,2013-01-11 11:16:00,
2013-01-11 03:17:00,35.9,32.1,29.67,North,5,0.0,0.0,86,0.00,,CLR,0.00,0.00,VWS V14.01,2013-01-11 11:17:00,
2013-01-11 03:19:00,35.9,32.1,29.67,North,5,0.0,2.0,86,0.00,,CLR,0.00,0.00,VWS V14.01,2013-01-11 11:19:00,
2013-01-11 03:20:00,35.8,32.3,29.67,WSW,256,0.0,1.0,87,0.00,,CLR,0.00,0.00,VWS V14.01,2013-01-11 11:20:00,
2013-01-11 03:21:00,36.0,32.5,29.67,North,5,0.0,0.0,87,0.00,,CLR,0.00,0.00,VWS V14.01,2013-01-11 11:21:00,
2013-01-11 03:22:00,36.0,32.5,29.67,North,5,0.0,0.0,87,0.00,,CLR,0.00,0.00,VWS V14.01,2013-01-11 11:22:00,
2013-01-11 03:25:00,35.9,32.1,29.67,North,5,0.0,1.0,86,0.00,,CLR,0.00,0.00,VWS V14.01,2013-01-11 11:25:00,
2013-01-11 03:26:00,35.9,32.1,29.67,North,360,0.0,1.0,86,0.00,,CLR,0.00,0.00,VWS V14.01,2013-01-11 11:26:00,
2013-01-11 03:27:00,35.9,32.1,29.67,North,360,0.0,1.0,86,0.00,,CLR,0.00,0.00,VWS V14.01,2013-01-11 11:27:00,
2013-01-11 03:30:00,35.8,32.0,29.67,North,360,0.0,1.0,86,0.00,,CLR,0.00,0.00,VWS V14.01,2013-01-11 11:30:00,
2013-01-11 03:31:00,35.7,31.9,29.67,North,360,0.0,0.0,86,0.00,,CLR,0.00,0.00,VWS V14.01,2013-01-11 11:31:00,
2013-01-11 03:32:00,35.7,31.9,29.67,North,360,0.0,0.0,86,0.00,,CLR,0.00,0.00,VWS V14.01,2013-01-11 11:32:00,
2013-01-11 03:33:00,35.6,31.8,29.67,North,360,0.0,0.0,86,0.00,,CLR,0.00,0.00,VWS V14.01,2013-01-11 11:33:00,
2013-01-11 03:35:00,35.5,32.0,29.67,North,360,0.0,0.0,87,0.00,,CLR,0.00,0.00,VWS V14.01,2013-01-11 11:35:00,
2013-01-11 03:36:00,35.5,32.0,29.67,North,360,0.0,0.0,87,0.00,,CLR,0.00,0.00,VWS V14.01,2013-01-11 11:36:00,
2013-01-11 03:37:00,35.4,31.9,29.67,North,360,0.0,0.0,87,0.00,,CLR,0.00,0.00,VWS V14.01,2013-01-11 11:37:00,
2013-01-11 03:38:00,35.4,31.9,29.67,North,360,0.0,0.0,87,0.00,,CLR,0.00,0.00,VWS V14.01,2013-01-11 11:38:00,
2013-01-11 03:40:00,35.3,31.8,29.67,North,360,0.0,1.0,87,0.00,,CLR,0.00,0.00,VWS V14.01,2013-01-11 11:40:00,
2013-01-11 03:41:00,35.3,31.8,29.68,North,360,0.0,1.0,87,0.00,,CLR,0.00,0.00,VWS V14.01,2013-01-11 11:41:00,
2013-01-11 03:43:00,35.3,32.1,29.68,North,360,0.0,1.0,88,0.00,,CLR,0.00,0.00,VWS V14.01,2013-01-11 11:43:00,
2013-01-11 03:45:00,35.2,31.7,29.68,North,360,0.0,1.0,87,0.00,,CLR,0.00,0.00,VWS V14.01,2013-01-11 11:45:00,
2013-01-11 03:46:00,35.2,31.7,29.68,North,360,0.0,1.0,87,0.00,,CLR,0.00,0.00,VWS V14.01,2013-01-11 11:46:00,
2013-01-11 03:48:00,35.1,31.6,29.68,North,360,1.0,1.0,87,0.00,,CLR,0.00,0.00,VWS V14.01,2013-01-11 11:48:00,
2013-01-11 03:50:00,34.9,31.4,29.68,North,360,0.0,0.0,87,0.00,,CLR,0.00,0.00,VWS V14.01,2013-01-11 11:50:00,
2013-01-11 03:52:00,34.7,31.2,29.68,North,360,0.0,0.0,87,0.00,,CLR,0.00,0.00,VWS V14.01,2013-01-11 11:52:00,
2013-01-11 03:53:00,34.6,31.4,29.68,North,360,0.0,0.0,88,0.00,,CLR,0.00,0.00,VWS V14.01,2013-01-11 11:53:00,
2013-01-11 03:56:00,34.5,31.3,29.68,North,360,0.0,0.0,88,0.00,,CLR,0.00,0.00,VWS V14.01,2013-01-11 11:56:00,
2013-01-11 03:57:00,34.5,31.3,29.67,North,360,0.0,0.0,88,0.00,,CLR,0.00,0.00,VWS V14.01,2013-01-11 11:57:00,
2013-01-11 03:58:00,34.4,31.5,29.68,North,360,0.0,0.0,89,0.00,,CLR,0.00,0.00,VWS V14.01,2013-01-11 11:58:00,
2013-01-11 03:59:00,34.4,31.5,29.68,North,360,0.0,0.0,89,0.00,,CLR,0.00,0.00,VWS V14.01,2013-01-11 11:59:00,
2013-01-11 04:00:00,34.5,31.6,29.67,North,360,0.0,0.0,89,0.00,,CLR,0.00,0.00,VWS V14.01,2013-01-11 12:00:00,
2013-01-11 04:01:00,34.5,31.9,29.68,North,360,0.0,0.0,90,0.00,,CLR,0.00,0.00,VWS V14.01,2013-01-11 12:01:00,
2013-01-11 04:02:00,34.6,32.0,29.68,North,360,0.0,1.0,90,0.00,,CLR,0.00,0.00,VWS V14.01,2013-01-11 12:02:00,
2013-01-11 04:03:00,34.7,32.1,29.68,North,360,0.0,1.0,90,0.00,,CLR,0.00,0.00,VWS V14.01,2013-01-11 12:03:00,
2013-01-11 04:04:00,34.7,32.1,29.68,North,360,0.0,1.0,90,0.00,,CLR,0.00,0.00,VWS V14.01,2013-01-11 12:04:00,
2013-01-11 04:06:00,35.0,32.4,29.68,WSW,251,1.0,2.0,90,0.00,,CLR,0.00,0.00,VWS V14.01,2013-01-11 12:06:00,
2013-01-11 04:07:00,35.0,32.4,29.68,WSW,256,0.0,2.0,90,0.00,,CLR,0.00,0.00,VWS V14.01,2013-01-11 12:07:00,
2013-01-11 04:08:00,35.2,32.6,29.67,WSW,256,0.0,2.0,90,0.00,,CLR,0.00,0.00,VWS V14.01,2013-01-11 12:08:00,
2013-01-11 04:09:00,35.2,32.6,29.67,WSW,256,0.0,2.0,90,0.00,,CLR,0.00,0.00,VWS V14.01,2013-01-11 12:09:00,
2013-01-11 04:10:00,35.3,32.4,29.67,WSW,256,0.0,2.0,89,0.00,,CLR,0.00,0.00,VWS V14.01,2013-01-11 12:10:00,
2013-01-11 04:11:00,35.3,32.4,29.68,WSW,256,0.0,0.0,89,0.00,,CLR,0.00,0.00,VWS V14.01,2013-01-11 12:11:00,
2013-01-11 04:12:00,35.4,32.5,29.68,WSW,256,0.0,0.0,89,0.00,,CLR,0.00,0.00,VWS V14.01,2013-01-11 12:12:00,
2013-01-11 04:13:00,35.5,32.6,29.68,WSW,256,1.0,1.0,89,0.00,,CLR,0.00,0.00,VWS V14.01,2013-01-11 12:13:00,
2013-01-11 04:14:00,35.6,32.7,29.68,WSW,256,0.0,1.0,89,0.00,,CLR,0.00,0.00,VWS V14.01,2013-01-11 12:14:00,
2013-01-11 04:16:00,35.7,32.5,29.67,WSW,256,0.0,1.0,88,0.00,,CLR,0.00,0.00,VWS V14.01,2013-01-11 12:16:00,
2013-01-11 04:17:00,35.7,32.5,29.67,WSW,256,0.0,1.0,88,0.00,,CLR,0.00,0.00,VWS V14.01,2013-01-11 12:17:00,
2013-01-11 04:18:00,35.8,32.6,29.67,WSW,256,0.0,1.0,88,0.00,,CLR,0.00,0.00,VWS V14.01,2013-01-11 12:18:00,
2013-01-11 04:19:00,35.8,32.6,29.67,WSW,256,0.0,1.0,88,0.00,,CLR,0.00,0.00,VWS V14.01,2013-01-11 12:19:00,
2013-01-11 04:20:00,35.8,32.3,29.67,WSW,256,0.0,1.0,87,0.00,,CLR,0.00,0.00,VWS V14.01,2013-01-11 12:20:00,
2013-01-11 04:21:00,35.8,32.3,29.67,WSW,256,0.0,1.0,87,0.00,,CLR,0.00,0.00,VWS V14.01,2013-01-11 12:21:00,
2013-01-11 04:22:00,35.8,32.3,29.67,WSW,256,0.0,2.0,87,0.00,,CLR,0.00,0.00,VWS V14.01,2013-01-11 12:22:00,
2013-01-11 04:23:00,35.8,32.3,29.67,WSW,256,0.0,2.0,87,0.00,,CLR,0.00,0.00,VWS V14.01,2013-01-11 12:23:00,
2013-01-11 04:24:00,35.8,32.3,29.67,WSW,256,0.0,2.0,87,0.00,,CLR,0.00,0.00,VWS V14.01,2013-01-11 12:24:00,
2013-01-11 04:26:00,35.9,32.7,29.67,WSW,256,0.0,2.0,88,0.00,,CLR,0.00,0.00,VWS V14.01,2013-01-11 12:26:00,
2013-01-11 04:27:00,35.9,32.4,29.67,WSW,256,0.0,2.0,87,0.00,,CLR,0.00,0.00,VWS V14.01,2013-01-11 12:27:00,
2013-01-11 04:29:00,35.9,32.4,29.67,WSW,256,0.0,2.0,87,0.00,,CLR,0.00,0.00,VWS V14.01,2013-01-11 12:29:00,
2013-01-11 04:30:00,35.9,32.4,29.67,WSW,256,0.0,2.0,87,0.00,,CLR,0.00,0.00,VWS V14.01,2013-01-11 12:30:00,
2013-01-11 04:31:00,35.9,32.4,29.67,WSW,257,0.0,0.0,87,0.00,,CLR,0.00,0.00,VWS V14.01,2013-01-11 12:31:00,
2013-01-11 04:32:00,35.8,32.3,29.67,WSW,257,0.0,0.0,87,0.00,,CLR,0.00,0.00,VWS V14.01,2013-01-11 12:32:00,
2013-01-11 04:34:00,35.8,32.3,29.67,WSW,257,0.0,0.0,87,0.00,,CLR,0.00,0.00,VWS V14.01,2013-01-11 12:34:00,
2013-01-11 04:36:00,35.9,32.4,29.67,WSW,257,0.0,0.0,87,0.00,,CLR,0.00,0.00,VWS V14.01,2013-01-11 12:36:00,
2013-01-11 04:37:00,35.8,32.3,29.67,WSW,257,0.0,0.0,87,0.00,,CLR,0.00,0.00,VWS V14.01,2013-01-11 12:37:00,
2013-01-11 04:39:00,35.8,32.3,29.67,WSW,257,0.0,0.0,87,0.00,,CLR,0.00,0.00,VWS V14.01,2013-01-11 12:39:00,
2013-01-11 04:40:00,35.8,32.3,29.67,WSW,257,0.0,0.0,87,0.00,,CLR,0.00,0.00,VWS V14.01,2013-01-11 12:40:00,
2013-01-11 04:41:00,35.7,32.2,29.67,WSW,257,0.0,0.0,87,0.00,,CLR,0.00,0.00,VWS V14.01,2013-01-11 12:41:00,
2013-01-11 04:42:00,35.7,32.2,29.67,WSW,257,0.0,0.0,87,0.00,,CLR,0.00,0.00,VWS V14.01,2013-01-11 12:42:00,
2013-01-11 04:44:00,35.7,32.2,29.67,WSW,257,0.0,0.0,87,0.00,,CLR,0.00,0.00,VWS V14.01,2013-01-11 12:44:00,
2013-01-11 04:46:00,35.7,32.2,29.67,WSW,257,0.0,0.0,87,0.00,,CLR,0.00,0.00,VWS V14.01,2013-01-11 12:46:00,
2013-01-11 04:47:00,35.7,32.2,29.67,WSW,257,0.0,1.0,87,0.00,,CLR,0.00,0.00,VWS V14.01,2013-01-11 12:47:00,
2013-01-11 04:49:00,35.7,32.2,29.67,WSW,257,0.0,1.0,87,0.00,,CLR,0.00,0.00,VWS V14.01,2013-01-11 12:49:00,
2013-01-11 04:50:00,35.6,32.1,29.67,WSW,257,0.0,1.0,87,0.00,,CLR,0.00,0.00,VWS V14.01,2013-01-11 12:50:00,
2013-01-11 04:51:00,35.6,32.1,29.67,WSW,257,0.0,0.0,87,0.00,,CLR,0.00,0.00,VWS V14.01,2013-01-11 12:51:00,
2013-01-11 04:52:00,35.5,32.0,29.67,WSW,257,0.0,0.0,87,0.00,,CLR,0.00,0.00,VWS V14.01,2013-01-11 12:52:00,
2013-01-11 04:54:00,35.4,31.9,29.67,WSW,257,0.0,0.0,87,0.00,,CLR,0.00,0.00,VWS V14.01,2013-01-11 12:54:00,
2013-01-11 04:56:00,35.3,31.8,29.67,WSW,257,0.0,1.0,87,0.00,,CLR,0.00,0.00,VWS V14.01,2013-01-11 12:56:00,
2013-01-11 04:57:00,35.3,31.8,29.68,WSW,257,0.0,1.0,87,0.00,,CLR,0.00,0.00,VWS V14.01,2013-01-11 12:57:00,
2013-01-11 04:59:00,35.2,31.7,29.68,WSW,257,0.0,1.0,87,0.00,,CLR,0.00,0.00,VWS V14.01,2013-01-11 12:59:00,
2013-01-11 05:00:00,35.2,31.7,29.68,WSW,257,0.0,1.0,87,0.00,,CLR,0.00,0.00,VWS V14.01,2013-01-11 13:00:00,
2013-01-11 05:02:00,35.0,31.5,29.68,WSW,257,0.0,1.0,87,0.00,,CLR,0.00,0.00,VWS V14.01,2013-01-11 13:02:00,
2013-01-11 05:03:00,35.0,31.5,29.68,WSW,257,0.0,1.0,87,0.00,,CLR,0.00,0.00,VWS V14.01,2013-01-11 13:03:00,
2013-01-11 05:04:00,35.0,31.5,29.68,WSW,257,0.0,1.0,87,0.00,,CLR,0.00,0.00,VWS V14.01,2013-01-11 13:04:00,
2013-01-11 05:05:00,34.9,31.4,29.68,WSW,257,0.0,1.0,87,0.00,,CLR,0.00,0.00,VWS V14.01,2013-01-11 13:05:00,
2013-01-11 05:07:00,34.8,31.3,29.68,WSW,257,0.0,1.0,87,0.00,,CLR,0.00,0.00,VWS V14.01,2013-01-11 13:07:00,
2013-01-11 05:08:00,34.8,31.3,29.68,WSW,257,0.0,1.0,87,0.00,,CLR,0.00,0.00,VWS V14.01,2013-01-11 13:08:00,
2013-01-11 05:09:00,34.7,31.5,29.68,WSW,257,0.0,1.0,88,0.00,,CLR,0.00,0.00,VWS V14.01,2013-01-11 13:09:00,
2013-01-11 05:10:00,34.7,31.5,29.68,WSW,257,0.0,0.0,88,0.00,,CLR,0.00,0.00,VWS V14.01,2013-01-11 13:10:00,
2013-01-11 05:12:00,34.6,31.4,29.68,WSW,257,0.0,0.0,88,0.00,,CLR,0.00,0.00,VWS V14.01,2013-01-11 13:12:00,
2013-01-11 05:13:00,34.5,31.3,29.68,WSW,257,0.0,0.0,88,0.00,,CLR,0.00,0.00,VWS V14.01,2013-01-11 13:13:00,
2013-01-11 05:14:00,34.4,31.2,29.68,WSW,257,0.0,0.0,88,0.00,,CLR,0.00,0.00,VWS V14.01,2013-01-11 13:14:00,
2013-01-11 05:15:00,34.4,31.2,29.68,WSW,257,0.0,0.0,88,0.00,,CLR,0.00,0.00,VWS V14.01,2013-01-11 13:15:00,
2013-01-11 05:17:00,34.3,31.1,29.68,WSW,257,0.0,0.0,88,0.00,,CLR,0.00,0.00,VWS V14.01,2013-01-11 13:17:00,
2013-01-11 05:18:00,34.2,31.0,29.68,WSW,257,0.0,0.0,88,0.00,,CLR,0.00,0.00,VWS V14.01,2013-01-11 13:18:00,
2013-01-11 05:19:00,34.1,30.9,29.68,WSW,257,0.0,0.0,88,0.00,,CLR,0.00,0.00,VWS V14.01,2013-01-11 13:19:00,
2013-01-11 05:20:00,34.1,30.9,29.68,WSW,257,0.0,0.0,88,0.00,,CLR,0.00,0.00,VWS V14.01,2013-01-11 13:20:00,
2013-01-11 05:22:00,34.0,30.8,29.68,WSW,257,0.0,0.0,88,0.00,,CLR,0.00,0.00,VWS V14.01,2013-01-11 13:22:00,
2013-01-11 05:23:00,33.9,31.0,29.68,WSW,257,0.0,0.0,89,0.00,,CLR,0.00,0.00,VWS V14.01,2013-01-11 13:23:00,
2013-01-11 05:24:00,33.9,31.0,29.68,WSW,257,0.0,0.0,89,0.00,,CLR,0.00,0.00,VWS V14.01,2013-01-11 13:24:00,
2013-01-11 05:25:00,33.8,30.9,29.68,WSW,257,0.0,0.0,89,0.00,,CLR,0.00,0.00,VWS V14.01,2013-01-11 13:25:00,
2013-01-11 05:27:00,33.8,30.9,29.68,WSW,257,0.0,1.0,89,0.00,,CLR,0.00,0.00,VWS V14.01,2013-01-11 13:27:00,
2013-01-11 05:29:00,33.7,30.8,29.69,WSW,257,0.0,1.0,89,0.00,,CLR,0.00,0.00,VWS V14.01,2013-01-11 13:29:00,
2013-01-11 05:30:00,33.6,30.7,29.69,WSW,257,0.0,1.0,89,0.00,,CLR,0.00,0.00,VWS V14.01,2013-01-11 13:30:00,
2013-01-11 05:32:00,33.6,30.7,29.69,WSW,257,0.0,0.0,89,0.00,,CLR,0.00,0.00,VWS V14.01,2013-01-11 13:32:00,
2013-01-11 05:34:00,33.5,30.6,29.69,WSW,257,0.0,0.0,89,0.00,,CLR,0.00,0.00,VWS V14.01,2013-01-11 13:34:00,
2013-01-11 05:35:00,33.5,30.6,29.69,WSW,257,0.0,0.0,89,0.00,,CLR,0.00,0.00,VWS V14.01,2013-01-11 13:35:00,
2013-01-11 05:37:00,33.4,30.8,29.69,WSW,257,0.0,0.0,90,0.00,,CLR,0.00,0.00,VWS V14.01,2013-01-11 13:37:00,
2013-01-11 05:39:00,33.4,30.8,29.69,WSW,257,0.0,0.0,90,0.00,,CLR,0.00,0.00,VWS V14.01,2013-01-11 13:39:00,
2013-01-11 05:40:00,33.3,30.7,29.69,WSW,257,0.0,0.0,90,0.00,,CLR,0.00,0.00,VWS V14.01,2013-01-11 13:40:00,
2013-01-11 05:43:00,33.2,30.6,29.69,WSW,257,0.0,0.0,90,0.00,,CLR,0.00,0.00,VWS V14.01,2013-01-11 13:43:00,
2013-01-11 05:44:00,33.2,30.6,29.69,WSW,257,0.0,0.0,90,0.00,,CLR,0.00,0.00,VWS V14.01,2013-01-11 13:44:00,
2013-01-11 05:45:00,33.1,30.5,29.69,WSW,257,0.0,0.0,90,0.00,,CLR,0.00,0.00,VWS V14.01,2013-01-11 13:45:00,
2013-01-11 05:48:00,33.0,30.4,29.69,WSW,257,0.0,0.0,90,0.00,,CLR,0.00,0.00,VWS V14.01,2013-01-11 13:48:00,
2013-01-11 05:49:00,33.0,30.4,29.69,WSW,257,0.0,0.0,90,0.00,,CLR,0.00,0.00,VWS V14.01,2013-01-11 13:49:00,
2013-01-11 05:50:00,32.9,30.3,29.69,WSW,257,0.0,0.0,90,0.00,,CLR,0.00,0.00,VWS V14.01,2013-01-11 13:50:00,
2013-01-11 05:53:00,32.8,30.2,29.70,WSW,257,0.0,0.0,90,0.00,,CLR,0.00,0.00,VWS V14.01,2013-01-11 13:53:00,
2013-01-11 05:54:00,32.7,30.1,29.70,WSW,257,0.0,0.0,90,0.00,,CLR,0.00,0.00,VWS V14.01,2013-01-11 13:54:00,
2013-01-11 05:55:00,32.7,30.1,29.70,WSW,257,0.0,0.0,90,0.00,,CLR,0.00,0.00,VWS V14.01,2013-01-11 13:55:00,
2013-01-11 05:56:00,32.7,30.1,29.70,WSW,257,0.0,0.0,90,0.00,,CLR,0.00,0.00,VWS V14.01,2013-01-11 13:56:00,
2013-01-11 05:58:00,32.6,30.3,29.70,WSW,257,0.0,0.0,91,0.00,,CLR,0.00,0.00,VWS V14.01,2013-01-11 13:58:00,
2013-01-11 05:59:00,32.6,30.3,29.70,WSW,257,0.0,0.0,91,0.00,,CLR,0.00,0.00,VWS V14.01,2013-01-11 13:59:00,
2013-01-11 06:00:00,32.6,30.3,29.70,WSW,257,0.0,0.0,91,0.00,,CLR,0.00,0.00,VWS V14.01,2013-01-11 14:00:00,
2013-01-11 06:01:00,32.6,30.3,29.70,WSW,257,0.0,0.0,91,0.00,,CLR,0.00,0.00,VWS V14.01,2013-01-11 14:01:00,
2013-01-11 06:03:00,32.6,30.3,29.70,WSW,257,0.0,0.0,91,0.00,,CLR,0.00,0.00,VWS V14.01,2013-01-11 14:03:00,
2013-01-11 06:04:00,32.5,30.2,29.70,WSW,257,0.0,0.0,91,0.00,,CLR,0.00,0.00,VWS V14.01,2013-01-11 14:04:00,
2013-01-11 06:05:00,32.5,30.2,29.70,WSW,257,0.0,0.0,91,0.00,,CLR,0.00,0.00,VWS V14.01,2013-01-11 14:05:00,
2013-01-11 06:06:00,32.5,30.2,29.70,WSW,257,0.0,0.0,91,0.00,,CLR,0.00,0.00,VWS V14.01,2013-01-11 14:06:00,
2013-01-11 06:08:00,32.4,30.1,29.70,WSW,257,0.0,0.0,91,0.00,,CLR,0.00,0.00,VWS V14.01,2013-01-11 14:08:00,
2013-01-11 06:09:00,32.3,30.0,29.70,WSW,257,0.0,0.0,91,0.00,,CLR,0.00,0.00,VWS V14.01,2013-01-11 14:09:00,
2013-01-11 06:10:00,32.3,30.0,29.70,WSW,257,0.0,0.0,91,0.00,,CLR,0.00,0.00,VWS V14.01,2013-01-11 14:10:00,
2013-01-11 06:11:00,32.3,30.0,29.70,WSW,257,0.0,0.0,91,0.00,,CLR,0.00,0.00,VWS V14.01,2013-01-11 14:11:00,
2013-01-11 06:13:00,32.3,30.0,29.70,WSW,257,0.0,0.0,91,0.00,,CLR,0.00,0.00,VWS V14.01,2013-01-11 14:13:00,
2013-01-11 06:14:00,32.3,30.0,29.70,WSW,257,0.0,0.0,91,0.00,,CLR,0.00,0.00,VWS V14.01,2013-01-11 14:14:00,
2013-01-11 06:15:00,32.2,29.9,29.70,WSW,257,0.0,0.0,91,0.00,,CLR,0.00,0.00,VWS V14.01,2013-01-11 14:15:00,
2013-01-11 06:16:00,32.2,29.9,29.70,WSW,257,0.0,0.0,91,0.00,,CLR,0.00,0.00,VWS V14.01,2013-01-11 14:16:00,
2013-01-11 06:18:00,32.2,30.1,29.70,WSW,257,0.0,0.0,92,0.00,,CLR,0.00,0.00,VWS V14.01,2013-01-11 14:18:00,
2013-01-11 06:19:00,32.2,30.1,29.70,WSW,257,0.0,0.0,92,0.00,,CLR,0.00,0.00,VWS V14.01,2013-01-11 14:19:00,
2013-01-11 06:20:00,32.2,30.1,29.70,WSW,257,0.0,0.0,92,0.00,,CLR,0.00,0.00,VWS V14.01,2013-01-11 14:20:00,
2013-01-11 06:21:00,32.2,30.1,29.70,WSW,257,0.0,0.0,92,0.00,,CLR,0.00,0.00,VWS V14.01,2013-01-11 14:21:00,
2013-01-11 06:23:00,32.1,30.0,29.70,WSW,257,0.0,0.0,92,0.00,,CLR,0.00,0.00,VWS V14.01,2013-01-11 14:23:00,
2013-01-11 06:24:00,32.1,30.0,29.70,WSW,257,0.0,0.0,92,0.00,,CLR,0.00,0.00,VWS V14.01,2013-01-11 14:24:00,
2013-01-11 06:26:00,32.1,30.0,29.70,WSW,257,0.0,0.0,92,0.00,,CLR,0.00,0.00,VWS V14.01,2013-01-11 14:26:00,
2013-01-11 06:28:00,32.1,30.0,29.70,WSW,257,0.0,0.0,92,0.00,,CLR,0.00,0.00,VWS V14.01,2013-01-11 14:28:00,
2013-01-11 06:30:00,32.1,30.0,29.71,WSW,257,0.0,0.0,92,0.00,,CLR,0.00,0.00,VWS V14.01,2013-01-11 14:30:00,
2013-01-11 06:31:00,32.1,30.0,29.71,WSW,257,0.0,0.0,92,0.00,,CLR,0.00,0.00,VWS V14.01,2013-01-11 14:31:00,
2013-01-11 06:32:00,32.1,30.0,29.71,WSW,257,0.0,0.0,92,0.00,,CLR,0.00,0.00,VWS V14.01,2013-01-11 14:32:00,
2013-01-11 06:33:00,32.0,29.9,29.71,WSW,257,0.0,0.0,92,0.00,,CLR,0.00,0.00,VWS V14.01,2013-01-11 14:33:00,
2013-01-11 06:35:00,32.0,29.9,29.71,WSW,257,0.0,0.0,92,0.00,,CLR,0.00,0.00,VWS V14.01,2013-01-11 14:35:00,
2013-01-11 06:36:00,32.0,29.9,29.70,WSW,257,0.0,0.0,92,0.00,,CLR,0.00,0.00,VWS V14.01,2013-01-11 14:36:00,
2013-01-11 06:37:00,32.0,29.9,29.71,WSW,257,0.0,0.0,92,0.00,,CLR,0.00,0.00,VWS V14.01,2013-01-11 14:37:00,
2013-01-11 06:38:00,31.9,29.8,29.71,WSW,257,0.0,0.0,92,0.00,,CLR,0.00,0.00,VWS V14.01,2013-01-11 14:38:00,
2013-01-11 06:40:00,31.9,29.8,29.71,WSW,257,0.0,0.0,92,0.00,,CLR,0.00,0.00,VWS V14.01,2013-01-11 14:40:00,
2013-01-11 06:41:00,31.9,29.8,29.71,WSW,257,0.0,0.0,92,0.00,,CLR,0.00,0.00,VWS V14.01,2013-01-11 14:41:00,
2013-01-11 06:42:00,31.8,29.8,29.71,WSW,257,0.0,0.0,92,0.00,,CLR,0.00,0.00,VWS V14.01,2013-01-11 14:42:00,
2013-01-11 06:43:00,31.8,29.8,29.71,WSW,257,0.0,0.0,92,0.00,,CLR,0.00,0.00,VWS V14.01,2013-01-11 14:43:00,
2013-01-11 06:45:00,31.7,29.6,29.71,WSW,257,0.0,0.0,92,0.00,,CLR,0.00,0.00,VWS V14.01,2013-01-11 14:45:00,
2013-01-11 06:46:00,31.7,29.6,29.71,WSW,257,0.0,0.0,92,0.00,,CLR,0.00,0.00,VWS V14.01,2013-01-11 14:46:00,
2013-01-11 06:47:00,31.7,29.6,29.71,WSW,257,0.0,0.0,92,0.00,,CLR,0.00,0.00,VWS V14.01,2013-01-11 14:47:00,
2013-01-11 06:49:00,31.6,29.5,29.71,WSW,257,0.0,0.0,92,0.00,,CLR,0.00,0.00,VWS V14.01,2013-01-11 14:49:00,
2013-01-11 06:50:00,31.6,29.5,29.71,WSW,257,0.0,0.0,92,0.00,,CLR,0.00,0.00,VWS V14.01,2013-01-11 14:50:00,
2013-01-11 06:51:00,31.5,29.5,29.71,WSW,257,0.0,0.0,92,0.00,,CLR,0.00,0.00,VWS V14.01,2013-01-11 14:51:00,
2013-01-11 06:52:00,31.5,29.5,29.72,WSW,257,0.0,0.0,92,0.00,,CLR,0.00,0.00,VWS V14.01,2013-01-11 14:52:00,
2013-01-11 06:54:00,31.4,29.4,29.72,WSW,257,0.0,0.0,92,0.00,,CLR,0.00,0.00,VWS V14.01,2013-01-11 14:54:00,
2013-01-11 06:55:00,31.3,29.2,29.72,WSW,257,0.0,0.0,92,0.00,,CLR,0.00,0.00,VWS V14.01,2013-01-11 14:55:00,
2013-01-11 06:56:00,31.3,29.2,29.72,WSW,257,0.0,0.0,92,0.00,,CLR,0.00,0.00,VWS V14.01,2013-01-11 14:56:00,
2013-01-11 06:57:00,31.2,29.1,29.72,WSW,257,0.0,0.0,92,0.00,,CLR,0.00,0.00,VWS V14.01,2013-01-11 14:57:00,
2013-01-11 06:59:00,31.2,29.1,29.72,WSW,257,0.0,0.0,92,0.00,,CLR,0.00,0.00,VWS V14.01,2013-01-11 14:59:00,
2013-01-11 07:00:00,31.2,29.1,29.72,WSW,257,0.0,0.0,92,0.00,,CLR,0.00,0.00,VWS V14.01,2013-01-11 15:00:00,
2013-01-11 07:02:00,31.1,29.0,29.72,WSW,257,0.0,0.0,92,0.00,,CLR,0.00,0.00,VWS V14.01,2013-01-11 15:02:00,
2013-01-11 07:04:00,31.1,29.0,29.72,WSW,257,0.0,0.0,92,0.00,,CLR,0.00,0.00,VWS V14.01,2013-01-11 15:04:00,
2013-01-11 07:05:00,31.0,29.0,29.72,WSW,257,0.0,0.0,92,0.00,,CLR,0.00,0.00,VWS V14.01,2013-01-11 15:05:00,
2013-01-11 07:07:00,31.0,29.0,29.72,WSW,257,0.0,0.0,92,0.00,,CLR,0.00,0.00,VWS V14.01,2013-01-11 15:07:00,
2013-01-11 07:09:00,31.0,29.2,29.72,WSW,257,0.0,0.0,93,0.00,,CLR,0.00,0.00,VWS V14.01,2013-01-11 15:09:00,
2013-01-11 07:10:00,31.0,29.2,29.72,WSW,257,0.0,0.0,93,0.00,,CLR,0.00,0.00,VWS V14.01,2013-01-11 15:10:00,
2013-01-11 07:12:00,30.9,29.1,29.72,WSW,257,0.0,0.0,93,0.00,,CLR,0.00,0.00,VWS V14.01,2013-01-11 15:12:00,
2013-01-11 07:14:00,30.9,29.1,29.72,WSW,257,0.0,0.0,93,0.00,,CLR,0.00,0.00,VWS V14.01,2013-01-11 15:14:00,
2013-01-11 07:15:00,30.9,29.1,29.72,WSW,257,0.0,0.0,93,0.00,,CLR,0.00,0.00,VWS V14.01,2013-01-11 15:15:00,
2013-01-11 07:17:00,30.8,29.0,29.72,WSW,257,0.0,0.0,93,0.00,,CLR,0.00,0.00,VWS V14.01,2013-01-11 15:17:00,
2013-01-11 07:19:00,30.8,29.0,29.72,WSW,257,0.0,0.0,93,0.00,,CLR,0.00,0.00,VWS V14.01,2013-01-11 15:19:00,
2013-01-11 07:20:00,30.7,28.9,29.72,WSW,257,0.0,0.0,93,0.00,,CLR,0.00,5.00,VWS V14.01,2013-01-11 15:20:00,
2013-01-11 07:22:00,30.7,28.9,29.72,WSW,257,0.0,0.0,93,0.00,,CLR,0.00,5.00,VWS V14.01,2013-01-11 15:22:00,
2013-01-11 07:23:00,30.6,28.8,29.72,WSW,257,0.0,0.0,93,0.00,,CLR,0.00,5.00,VWS V14.01,2013-01-11 15:23:00,
2013-01-11 07:24:00,30.6,28.8,29.72,WSW,257,0.0,0.0,93,0.00,,CLR,0.00,5.00,VWS V14.01,2013-01-11 15:24:00,
2013-01-11 07:25:00,30.6,28.8,29.72,WSW,257,0.0,0.0,93,0.00,,CLR,0.00,7.00,VWS V14.01,2013-01-11 15:25:00,
2013-01-11 07:27:00,30.5,28.7,29.72,WSW,257,0.0,0.0,93,0.00,,CLR,0.00,7.00,VWS V14.01,2013-01-11 15:27:00,
2013-01-11 07:28:00,30.5,28.7,29.72,WSW,257,0.0,0.0,93,0.00,,CLR,0.00,9.00,VWS V14.01,2013-01-11 15:28:00,
2013-01-11 07:29:00,30.5,28.7,29.72,WSW,257,0.0,0.0,93,0.00,,CLR,0.00,9.00,VWS V14.01,2013-01-11 15:29:00,
2013-01-11 07:30:00,30.5,28.7,29.72,WSW,257,0.0,0.0,93,0.00,,CLR,0.00,9.00,VWS V14.01,2013-01-11 15:30:00,
2013-01-11 07:32:00,30.5,28.7,29.72,WSW,257,0.0,0.0,93,0.00,,CLR,0.00,11.00,VWS V14.01,2013-01-11 15:32:00,
2013-01-11 07:33:00,30.5,28.7,29.72,WSW,257,0.0,0.0,93,0.00,,CLR,0.00,11.00,VWS V14.01,2013-01-11 15:33:00,
2013-01-11 07:34:00,30.5,28.7,29.72,WSW,257,0.0,0.0,93,0.00,,CLR,0.00,12.00,VWS V14.01,2013-01-11 15:34:00,
2013-01-11 07:35:00,30.5,28.7,29.72,WSW,257,0.0,0.0,93,0.00,,CLR,0.00,12.00,VWS V14.01,2013-01-11 15:35:00,
2013-01-11 07:37:00,30.5,28.7,29.72,WSW,257,0.0,0.0,93,0.00,,CLR,0.00,12.00,VWS V14.01,2013-01-11 15:37:00,
2013-01-11 07:38:00,30.4,28.6,29.72,WSW,257,0.0,0.0,93,0.00,,CLR,0.00,12.00,VWS V14.01,2013-01-11 15:38:00,
2013-01-11 07:39:00,30.4,28.6,29.72,WSW,257,0.0,0.0,93,0.00,,CLR,0.00,14.00,VWS V14.01,2013-01-11 15:39:00,
2013-01-11 07:40:00,30.4,28.6,29.72,WSW,257,0.0,0.0,93,0.00,,CLR,0.00,14.00,VWS V14.01,2013-01-11 15:40:00,
2013-01-11 07:42:00,30.4,28.6,29.72,WSW,257,0.0,0.0,93,0.00,,CLR,0.00,16.00,VWS V14.01,2013-01-11 15:42:00,
2013-01-11 07:43:00,30.4,28.6,29.72,WSW,257,0.0,0.0,93,0.00,,CLR,0.00,16.00,VWS V14.01,2013-01-11 15:43:00,
2013-01-11 07:45:00,30.5,28.7,29.72,WSW,257,0.0,0.0,93,0.00,,CLR,0.00,16.00,VWS V14.01,2013-01-11 15:45:00,
2013-01-11 07:48:00,30.5,28.7,29.72,WSW,257,0.0,0.0,93,0.00,,CLR,0.00,18.00,VWS V14.01,2013-01-11 15:48:00,
2013-01-11 07:50:00,30.5,28.7,29.72,WSW,257,0.0,0.0,93,0.00,,CLR,0.00,18.00,VWS V14.01,2013-01-11 15:50:00,
2013-01-11 07:53:00,30.7,29.2,29.73,WSW,257,0.0,0.0,94,0.00,,CLR,0.00,19.00,VWS V14.01,2013-01-11 15:53:00,
2013-01-11 07:55:00,30.8,29.3,29.73,WSW,257,0.0,1.0,94,0.00,,CLR,0.00,21.00,VWS V14.01,2013-01-11 15:55:00,
2013-01-11 07:58:00,30.9,29.4,29.73,WSW,257,0.0,1.0,94,0.00,,CLR,0.00,23.00,VWS V14.01,2013-01-11 15:58:00,
2013-01-11 08:00:00,30.9,30.9,29.73,WSW,257,0.0,1.0,100,0.00,,CLR,0.00,23.00,VWS V14.01,2013-01-11 16:00:00,
2013-01-11 08:03:00,31.0,29.5,29.73,WSW,257,0.0,0.0,94,0.00,,CLR,0.00,25.00,VWS V14.01,2013-01-11 16:03:00,
2013-01-11 08:05:00,31.0,29.5,29.73,WSW,257,0.0,0.0,94,0.00,,CLR,0.00,25.00,VWS V14.01,2013-01-11 16:05:00,
2013-01-11 08:06:00,31.0,29.5,29.73,WSW,257,0.0,0.0,94,0.00,,CLR,0.00,26.00,VWS V14.01,2013-01-11 16:06:00,
2013-01-11 08:08:00,31.0,29.5,29.73,WSW,257,0.0,0.0,94,0.00,,CLR,0.00,26.00,VWS V14.01,2013-01-11 16:08:00,
2013-01-11 08:09:00,31.0,29.5,29.73,WSW,257,0.0,0.0,94,0.00,,CLR,0.00,28.00,VWS V14.01,2013-01-11 16:09:00,
2013-01-11 08:10:00,31.0,29.5,29.73,WSW,257,0.0,0.0,94,0.00,,CLR,0.00,28.00,VWS V14.01,2013-01-11 16:10:00,
2013-01-11 08:11:00,31.0,29.5,29.73,WSW,257,0.0,1.0,94,0.00,,CLR,0.00,28.00,VWS V14.01,2013-01-11 16:11:00,
2013-01-11 08:13:00,31.1,29.6,29.73,WSW,257,0.0,1.0,94,0.00,,CLR,0.00,30.00,VWS V14.01,2013-01-11 16:13:00,
2013-01-11 08:14:00,31.1,29.6,29.73,WSW,257,0.0,1.0,94,0.00,,CLR,0.00,30.00,VWS V14.01,2013-01-11 16:14:00,
2013-01-11 08:15:00,31.1,29.6,29.73,WSW,257,0.0,1.0,94,0.00,,CLR,0.00,44.00,VWS V14.01,2013-01-11 16:15:00,
2013-01-11 08:16:00,31.2,29.7,29.73,WSW,257,0.0,1.0,94,0.00,,CLR,0.00,49.00,VWS V14.01,2013-01-11 16:16:00,
2013-01-11 08:18:00,31.3,29.8,29.74,WSW,257,0.0,1.0,94,0.00,,CLR,0.00,58.00,VWS V14.01,2013-01-11 16:18:00,
2013-01-11 08:19:00,31.3,29.8,29.74,WSW,257,0.0,1.0,94,0.00,,CLR,0.00,58.00,VWS V14.01,2013-01-11 16:19:00,
2013-01-11 08:20:00,31.4,29.9,29.74,WSW,257,0.0,0.0,94,0.00,,CLR,0.00,63.00,VWS V14.01,2013-01-11 16:20:00,
2013-01-11 08:21:00,31.5,30.0,29.74,WSW,257,0.0,0.0,94,0.00,,CLR,0.00,67.00,VWS V14.01,2013-01-11 16:21:00,
2013-01-11 08:23:00,31.7,30.2,29.74,WSW,257,0.0,0.0,94,0.00,,CLR,0.00,74.00,VWS V14.01,2013-01-11 16:23:00,
2013-01-11 08:24:00,31.7,30.2,29.74,WSW,257,0.0,0.0,94,0.00,,CLR,0.00,74.00,VWS V14.01,2013-01-11 16:24:00,
2013-01-11 08:25:00,31.8,30.3,29.74,WSW,257,0.0,0.0,94,0.00,,CLR,0.00,79.00,VWS V14.01,2013-01-11 16:25:00,
2013-01-11 08:26:00,31.9,30.4,29.74,WSW,257,0.0,0.0,94,0.00,,CLR,0.00,83.00,VWS V14.01,2013-01-11 16:26:00,
2013-01-11 08:28:00,32.3,30.8,29.74,WSW,257,0.0,0.0,94,0.00,,CLR,0.00,90.00,VWS V14.01,2013-01-11 16:28:00,
2013-01-11 08:29:00,32.3,30.8,29.74,WSW,257,0.0,0.0,94,0.00,,CLR,0.00,90.00,VWS V14.01,2013-01-11 16:29:00,
2013-01-11 08:30:00,32.6,31.3,29.74,WSW,257,0.0,0.0,95,0.00,,CLR,0.00,93.00,VWS V14.01,2013-01-11 16:30:00,
2013-01-11 08:31:00,32.6,31.3,29.74,WSW,257,0.0,0.0,95,0.00,,CLR,0.00,93.00,VWS V14.01,2013-01-11 16:31:00,
2013-01-11 08:34:00,33.3,32.0,29.74,WSW,257,0.0,0.0,95,0.00,,CLR,0.00,105.00,VWS V14.01,2013-01-11 16:34:00,
2013-01-11 08:35:00,33.5,32.2,29.74,WSW,257,0.0,0.0,95,0.00,,CLR,0.00,111.00,VWS V14.01,2013-01-11 16:35:00,
2013-01-11 08:36:00,33.7,32.4,29.74,WSW,257,0.0,0.0,95,0.00,,CLR,0.00,111.00,VWS V14.01,2013-01-11 16:36:00,
2013-01-11 08:39:00,34.2,32.9,29.74,WSW,257,0.0,0.0,95,0.00,,CLR,0.00,120.00,VWS V14.01,2013-01-11 16:39:00,
2013-01-11 08:40:00,34.4,33.1,29.74,WSW,257,0.0,0.0,95,0.00,,CLR,0.00,123.00,VWS V14.01,2013-01-11 16:40:00,
2013-01-11 08:41:00,34.5,33.2,29.74,WSW,257,0.0,0.0,95,0.00,,CLR,0.00,125.00,VWS V14.01,2013-01-11 16:41:00,
2013-01-11 08:44:00,34.9,33.3,29.74,WSW,257,0.0,0.0,94,0.00,,CLR,0.00,135.00,VWS V14.01,2013-01-11 16:44:00,
2013-01-11 08:45:00,35.1,33.5,29.74,WSW,257,0.0,0.0,94,0.00,,CLR,0.00,137.00,VWS V14.01,2013-01-11 16:45:00,
2013-01-11 08:46:00,35.2,33.4,29.74,WSW,257,0.0,0.0,93,0.00,,CLR,0.00,142.00,VWS V14.01,2013-01-11 16:46:00,
2013-01-11 08:49:00,35.3,33.2,29.74,WSW,257,0.0,0.0,92,0.00,,CLR,0.00,149.00,VWS V14.01,2013-01-11 16:49:00,
2013-01-11 08:50:00,35.3,33.2,29.74,WSW,257,0.0,0.0,92,0.00,,CLR,0.00,155.00,VWS V14.01,2013-01-11 16:50:00,
2013-01-11 08:51:00,35.4,33.3,29.74,WSW,257,0.0,0.0,92,0.00,,CLR,0.00,155.00,VWS V14.01,2013-01-11 16:51:00,
2013-01-11 08:54:00,35.8,33.7,29.74,WSW,257,0.0,0.0,92,0.00,,CLR,0.00,163.00,VWS V14.01,2013-01-11 16:54:00,
2013-01-11 08:55:00,36.0,33.9,29.74,WSW,257,0.0,0.0,92,0.00,,CLR,0.00,169.00,VWS V14.01,2013-01-11 16:55:00,
2013-01-11 08:56:00,36.1,34.0,29.74,WSW,257,0.0,0.0,92,0.00,,CLR,0.00,171.00,VWS V14.01,2013-01-11 16:56:00,
2013-01-11 08:59:00,36.2,33.8,29.74,WSW,257,0.0,0.0,91,0.00,,CLR,0.00,179.00,VWS V14.01,2013-01-11 16:59:00,
2013-01-11 09:00:00,36.3,33.9,29.74,WSW,257,0.0,0.0,91,0.00,,CLR,0.00,181.00,VWS V14.01,2013-01-11 17:00:00,
2013-01-11 09:01:00,36.3,33.9,29.74,WSW,257,0.0,0.0,91,0.00,,CLR,0.00,183.00,VWS V14.01,2013-01-11 17:01:00,
2013-01-11 09:02:00,36.4,34.0,29.74,WSW,257,0.0,1.0,91,0.00,,CLR,0.00,185.00,VWS V14.01,2013-01-11 17:02:00,
2013-01-11 09:04:00,36.6,34.0,29.74,WSW,257,0.0,1.0,90,0.00,,CLR,0.00,192.00,VWS V14.01,2013-01-11 17:04:00,
2013-01-11 09:06:00,36.8,34.4,29.74,WSW,257,0.0,1.0,91,0.00,,CLR,0.00,197.00,VWS V14.01,2013-01-11 17:06:00,
2013-01-11 09:07:00,36.9,34.5,29.74,WSW,257,0.0,1.0,91,0.00,,CLR,0.00,197.00,VWS V14.01,2013-01-11 17:07:00,
2013-01-11 09:09:00,37.2,34.5,29.74,WSW,257,0.0,1.0,90,0.00,,CLR,0.00,207.00,VWS V14.01,2013-01-11 17:09:00,
2013-01-11 09:10:00,37.3,34.6,29.74,WSW,257,0.0,1.0,90,0.00,,CLR,0.00,207.00,VWS V14.01,2013-01-11 17:10:00,
2013-01-11 09:11:00,37.4,34.7,29.74,WSW,257,0.0,0.0,90,0.00,,CLR,0.00,216.00,VWS V14.01,2013-01-11 17:11:00,
2013-01-11 09:12:00,37.5,34.8,29.74,WSW,257,0.0,0.0,90,0.00,,CLR,0.00,216.00,VWS V14.01,2013-01-11 17:12:00,
2013-01-11 09:14:00,38.0,35.0,29.74,WSW,257,0.0,0.0,89,0.00,,CLR,0.00,251.00,VWS V14.01,2013-01-11 17:14:00,
2013-01-11 09:16:00,38.3,35.3,29.74,WSW,257,0.0,0.0,89,0.00,,CLR,0.00,265.00,VWS V14.01,2013-01-11 17:16:00,
2013-01-11 09:17:00,38.5,35.8,29.74,WSW,257,0.0,0.0,90,0.00,,CLR,0.00,281.00,VWS V14.01,2013-01-11 17:17:00,
2013-01-11 09:19:00,39.1,35.8,29.74,WSW,257,0.0,1.0,88,0.00,,CLR,0.00,323.00,VWS V14.01,2013-01-11 17:19:00,
2013-01-11 09:20:00,39.1,35.8,29.74,WSW,257,0.0,1.0,88,0.00,,CLR,0.00,248.00,VWS V14.01,2013-01-11 17:20:00,
2013-01-11 09:21:00,39.3,35.8,29.74,WSW,257,0.0,0.0,87,0.00,,CLR,0.00,202.00,VWS V14.01,2013-01-11 17:21:00,
2013-01-11 09:22:00,39.5,35.7,29.74,WSW,257,0.0,0.0,86,0.00,,CLR,0.00,190.00,VWS V14.01,2013-01-11 17:22:00,
2013-01-11 09:24:00,39.8,35.7,29.74,WSW,257,0.0,1.0,85,0.00,,CLR,0.00,167.00,VWS V14.01,2013-01-11 17:24:00,
2013-01-11 09:25:00,39.8,35.7,29.74,WSW,257,0.0,1.0,85,0.00,,CLR,0.00,163.00,VWS V14.01,2013-01-11 17:25:00,
2013-01-11 09:26:00,40.0,35.6,29.74,WSW,257,0.0,1.0,84,0.00,,CLR,0.00,160.00,VWS V14.01,2013-01-11 17:26:00,
2013-01-11 09:27:00,40.0,35.6,29.74,WSW,257,0.0,1.0,84,0.00,,CLR,0.00,160.00,VWS V14.01,2013-01-11 17:27:00,
2013-01-11 09:29:00,40.2,35.8,29.73,WSW,257,0.0,1.0,84,0.00,,CLR,0.00,163.00,VWS V14.01,2013-01-11 17:29:00,
2013-01-11 09:30:00,40.2,35.8,29.73,WSW,257,0.0,1.0,84,0.00,,CLR,0.00,165.00,VWS V14.01,2013-01-11 17:30:00,
2013-01-11 09:31:00,40.3,35.9,29.73,WSW,257,0.0,0.0,84,0.00,,CLR,0.00,167.00,VWS V14.01,2013-01-11 17:31:00,
2013-01-11 09:32:00,40.3,35.9,29.73,WSW,257,0.0,1.0,84,0.00,,CLR,0.00,172.00,VWS V14.01,2013-01-11 17:32:00,
2013-01-11 09:34:00,40.4,36.0,29.73,WSW,257,0.0,1.0,84,0.00,,CLR,0.00,186.00,VWS V14.01,2013-01-11 17:34:00,
2013-01-11 09:35:00,40.4,35.7,29.73,WSW,257,0.0,1.0,83,0.00,,CLR,0.00,213.00,VWS V14.01,2013-01-11 17:35:00,
2013-01-11 09:36:00,40.4,35.7,29.73,WSW,257,0.0,1.0,83,0.00,,CLR,0.00,232.00,VWS V14.01,2013-01-11 17:36:00,
2013-01-11 09:37:00,40.4,35.7,29.73,WSW,257,0.0,1.0,83,0.00,,CLR,0.00,241.00,VWS V14.01,2013-01-11 17:37:00,
2013-01-11 09:39:00,40.6,36.2,29.73,WSW,257,0.0,1.0,84,0.00,,CLR,0.00,218.00,VWS V14.01,2013-01-11 17:39:00,
2013-01-11 09:40:00,40.6,36.2,29.73,WSW,257,0.0,1.0,84,0.00,,CLR,0.00,218.00,VWS V14.01,2013-01-11 17:40:00,
2013-01-11 09:41:00,40.6,36.2,29.73,WSW,257,0.0,0.0,84,0.00,,CLR,0.00,211.00,VWS V14.01,2013-01-11 17:41:00,
2013-01-11 09:42:00,40.6,36.2,29.74,WSW,257,0.0,0.0,84,0.00,,CLR,0.00,211.00,VWS V14.01,2013-01-11 17:42:00,
2013-01-11 09:45:00,40.7,36.0,29.73,WSW,257,0.0,0.0,83,0.00,,CLR,0.00,192.00,VWS V14.01,2013-01-11 17:45:00,
2013-01-11 09:46:00,40.9,36.1,29.73,WSW,257,0.0,0.0,83,0.00,,CLR,0.00,190.00,VWS V14.01,2013-01-11 17:46:00,
2013-01-11 09:47:00,40.9,36.1,29.73,WSW,257,0.0,0.0,83,0.00,,CLR,0.00,190.00,VWS V14.01,2013-01-11 17:47:00,
2013-01-11 09:50:00,41.1,36.3,29.74,WSW,257,0.0,1.0,83,0.00,,CLR,0.00,192.00,VWS V14.01,2013-01-11 17:50:00,
2013-01-11 09:51:00,41.1,36.3,29.74,WSW,257,0.0,0.0,83,0.00,,CLR,0.00,193.00,VWS V14.01,2013-01-11 17:51:00,
2013-01-11 09:52:00,41.2,36.4,29.74,WSW,257,0.0,0.0,83,0.00,,CLR,0.00,195.00,VWS V14.01,2013-01-11 17:52:00,
2013-01-11 09:55:00,41.5,37.0,29.73,WSW,257,0.0,0.0,84,0.00,,CLR,0.00,199.00,VWS V14.01,2013-01-11 17:55:00,
2013-01-11 09:56:00,41.6,36.8,29.73,WSW,257,1.0,1.0,83,0.00,,CLR,0.00,199.00,VWS V14.01,2013-01-11 17:56:00,
2013-01-11 09:57:00,41.6,36.5,29.73,WSW,257,0.0,1.0,82,0.00,,CLR,0.00,197.00,VWS V14.01,2013-01-11 17:57:00,
2013-01-11 10:00:00,41.9,36.8,29.73,WSW,257,0.0,1.0,82,0.00,,CLR,0.00,195.00,VWS V14.01,2013-01-11 18:00:00,
2013-01-11 10:01:00,42.0,36.9,29.74,WSW,257,0.0,0.0,82,0.00,,CLR,0.00,193.00,VWS V14.01,2013-01-11 18:01:00,
2013-01-11 10:02:00,42.2,37.1,29.74,WSW,257,0.0,0.0,82,0.00,,CLR,0.00,192.00,VWS V14.01,2013-01-11 18:02:00,
2013-01-11 10:05:00,42.5,37.4,29.73,WSW,257,0.0,0.0,82,0.00,,CLR,0.00,186.00,VWS V14.01,2013-01-11 18:05:00,
2013-01-11 10:07:00,42.7,37.6,29.74,WSW,257,0.0,0.0,82,0.00,,CLR,0.00,185.00,VWS V14.01,2013-01-11 18:07:00,
2013-01-11 10:10:00,43.1,37.0,29.74,WSW,257,0.0,1.0,79,0.00,,CLR,0.00,172.00,VWS V14.01,2013-01-11 18:10:00,
2013-01-11 10:11:00,43.1,37.0,29.74,WSW,257,0.0,1.0,79,0.00,,CLR,0.00,171.00,VWS V14.01,2013-01-11 18:11:00,
2013-01-11 10:12:00,43.2,36.8,29.73,WSW,257,0.0,1.0,78,0.00,,CLR,0.00,171.00,VWS V14.01,2013-01-11 18:12:00,
2013-01-11 10:16:00,43.4,36.7,29.74,WSW,257,0.0,1.0,77,0.00,,CLR,0.00,158.00,VWS V14.01,2013-01-11 18:16:00,
2013-01-11 10:17:00,43.5,37.1,29.74,WSW,257,0.0,1.0,78,0.00,,CLR,0.00,156.00,VWS V14.01,2013-01-11 18:17:00,
2013-01-11 10:20:00,43.7,37.0,29.74,WSW,257,0.0,1.0,77,0.00,,CLR,0.00,155.00,VWS V14.01,2013-01-11 18:20:00,
2013-01-11 10:21:00,43.8,36.7,29.74,WSW,257,0.0,0.0,76,0.00,,CLR,0.00,158.00,VWS V14.01,2013-01-11 18:21:00,
2013-01-11 10:22:00,43.8,37.1,29.73,WSW,257,0.0,0.0,77,0.00,,CLR,0.00,172.00,VWS V14.01,2013-01-11 18:22:00,
2013-01-11 10:26:00,44.0,36.6,29.74,WSW,257,0.0,1.0,75,0.00,,CLR,0.00,260.00,VWS V14.01,2013-01-11 18:26:00,
2013-01-11 10:27:00,44.0,36.6,29.74,WSW,257,2.0,2.0,75,0.00,,CLR,0.00,285.00,VWS V14.01,2013-01-11 18:27:00,
2013-01-11 10:30:00,44.2,36.8,29.73,WSW,257,0.0,2.0,75,0.00,,CLR,0.00,262.00,VWS V14.01,2013-01-11 18:30:00,
2013-01-11 10:31:00,44.3,37.2,29.73,WSW,257,0.0,0.0,76,0.00,,CLR,0.00,311.00,VWS V14.01,2013-01-11 18:31:00,
2013-01-11 10:32:00,44.4,37.3,29.73,WSW,257,0.0,0.0,76,0.00,,CLR,0.00,262.00,VWS V14.01,2013-01-11 18:32:00,
2013-01-11 10:36:00,44.8,37.0,29.73,WSW,257,0.0,1.0,74,0.00,,CLR,0.00,260.00,VWS V14.01,2013-01-11 18:36:00,
2013-01-11 10:37:00,44.8,37.0,29.73,WSW,257,0.0,1.0,74,0.00,,CLR,0.00,258.00,VWS V14.01,2013-01-11 18:37:00,
2013-01-11 10:40:00,45.1,37.7,29.73,WSW,257,0.0,2.0,75,0.00,,CLR,0.00,258.00,VWS V14.01,2013-01-11 18:40:00,
2013-01-11 10:41:00,45.3,38.2,29.73,WSW,257,0.0,0.0,76,0.00,,CLR,0.00,258.00,VWS V14.01,2013-01-11 18:41:00,
2013-01-11 10:42:00,45.4,38.3,29.73,WSW,257,0.0,0.0,76,0.00,,CLR,0.00,258.00,VWS V14.01,2013-01-11 18:42:00,
2013-01-11 10:46:00,45.9,37.4,29.73,WSW,238,0.0,4.0,72,0.00,,CLR,0.00,262.00,VWS V14.01,2013-01-11 18:46:00,
2013-01-11 10:47:00,45.9,37.4,29.73,WSW,238,0.0,4.0,72,0.00,,CLR,0.00,265.00,VWS V14.01,2013-01-11 18:47:00,
2013-01-11 10:50:00,46.1,37.2,29.73,WSW,255,0.0,4.0,71,0.00,,CLR,0.00,294.00,VWS V14.01,2013-01-11 18:50:00,
2013-01-11 10:51:00,46.3,37.4,29.73,WSW,257,0.0,3.0,71,0.00,,CLR,0.00,279.00,VWS V14.01,2013-01-11 18:51:00,
2013-01-11 10:52:00,46.3,37.4,29.72,WSW,257,0.0,3.0,71,0.00,,CLR,0.00,269.00,VWS V14.01,2013-01-11 18:52:00,
2013-01-11 10:53:00,46.4,37.5,29.72,WSW,257,0.0,3.0,71,0.00,,CLR,0.00,292.00,VWS V14.01,2013-01-11 18:53:00,
2013-01-11 10:57:00,46.7,37.5,29.72,West,281,1.0,3.0,70,0.00,,CLR,0.00,246.00,VWS V14.01,2013-01-11 18:57:00,
2013-01-11 10:58:00,46.7,37.1,29.73,WNW,292,0.0,3.0,69,0.00,,CLR,0.00,246.00,VWS V14.01,2013-01-11 18:58:00,
2013-01-11 11:00:00,46.8,37.2,29.72,West,263,0.0,3.0,69,0.00,,CLR,0.00,297.00,VWS V14.01,2013-01-11 19:00:00,
2013-01-11 11:02:00,46.9,37.3,29.72,West,263,0.0,1.0,69,0.00,,CLR,0.00,341.00,VWS V14.01,2013-01-11 19:02:00,
2013-01-11 11:03:00,47.0,37.4,29.72,West,263,0.0,1.0,69,0.00,,CLR,0.00,341.00,VWS V14.01,2013-01-11 19:03:00,
2013-01-11 11:07:00,47.3,37.3,29.72,West,268,0.0,5.0,68,0.00,,CLR,0.00,237.00,VWS V14.01,2013-01-11 19:07:00,
2013-01-11 11:08:00,47.3,36.9,29.72,West,268,0.0,5.0,67,0.00,,CLR,0.00,237.00,VWS V14.01,2013-01-11 19:08:00,
2013-01-11 11:10:00,47.4,36.6,29.72,West,262,3.0,5.0,66,0.00,,CLR,0.00,255.00,VWS V14.01,2013-01-11 19:10:00,
2013-01-11 11:12:00,47.4,36.6,29.72,WNW,288,0.0,3.0,66,0.00,,CLR,0.00,179.00,VWS V14.01,2013-01-11 19:12:00,
2013-01-11 11:13:00,47.4,36.6,29.72,WNW,288,0.0,3.0,66,0.00,,CLR,0.00,179.00,VWS V14.01,2013-01-11 19:13:00,
2013-01-11 11:17:00,47.5,36.7,29.71,WNW,288,0.0,3.0,66,0.00,,CLR,0.00,243.00,VWS V14.01,2013-01-11 19:17:00,
2013-01-11 11:18:00,47.5,36.7,29.71,WNW,288,1.0,3.0,66,0.00,,CLR,0.00,257.00,VWS V14.01,2013-01-11 19:18:00,
2013-01-11 11:20:00,47.6,36.4,29.71,WNW,288,0.0,3.0,65,0.00,,CLR,0.00,285.00,VWS V14.01,2013-01-11 19:20:00,
2013-01-11 11:22:00,47.7,36.5,29.71,WNW,288,0.0,1.0,65,0.00,,CLR,0.00,178.00,VWS V14.01,2013-01-11 19:22:00,
2013-01-11 11:23:00,47.7,36.5,29.71,WNW,288,0.0,1.0,65,0.00,,CLR,0.00,178.00,VWS V14.01,2013-01-11 19:23:00,
2013-01-11 11:24:00,47.8,36.6,29.71,WNW,288,0.0,1.0,65,0.00,,CLR,0.00,260.00,VWS V14.01,2013-01-11 19:24:00,
2013-01-11 11:27:00,48.1,36.9,29.71,West,272,0.0,3.0,65,0.00,,CLR,0.00,487.00,VWS V14.01,2013-01-11 19:27:00,
2013-01-11 11:28:00,48.3,37.5,29.70,West,272,0.0,3.0,66,0.00,,CLR,0.00,497.00,VWS V14.01,2013-01-11 19:28:00,
2013-01-11 11:29:00,48.3,37.5,29.70,West,272,1.0,3.0,66,0.00,,CLR,0.00,497.00,VWS V14.01,2013-01-11 19:29:00,
2013-01-11 11:30:00,48.5,36.9,29.70,West,272,0.0,3.0,64,0.00,,CLR,0.00,466.00,VWS V14.01,2013-01-11 19:30:00,
2013-01-11 11:32:00,48.8,37.2,29.70,WSW,237,3.0,6.0,64,0.00,,CLR,0.00,397.00,VWS V14.01,2013-01-11 19:32:00,
2013-01-11 11:33:00,48.8,37.2,29.70,WSW,237,0.0,6.0,64,0.00,,CLR,0.00,397.00,VWS V14.01,2013-01-11 19:33:00,
2013-01-11 11:34:00,48.9,37.7,29.70,SW,236,0.0,6.0,65,0.00,,CLR,0.00,515.00,VWS V14.01,2013-01-11 19:34:00,
2013-01-11 11:37:00,49.4,36.9,29.70,SSW,212,0.0,6.0,62,0.00,,CLR,0.00,536.00,VWS V14.01,2013-01-11 19:37:00,
2013-01-11 11:38:00,49.4,36.9,29.70,SSW,212,1.0,6.0,62,0.00,,CLR,0.00,536.00,VWS V14.01,2013-01-11 19:38:00,
2013-01-11 11:39:00,49.5,37.0,29.70,SW,226,1.0,6.0,62,0.00,,CLR,0.00,536.00,VWS V14.01,2013-01-11 19:39:00,
2013-01-11 11:40:00,49.6,36.7,29.69,WNW,296,0.0,6.0,61,0.00,,CLR,0.00,508.00,VWS V14.01,2013-01-11 19:40:00,
2013-01-11 11:42:00,49.7,37.2,29.69,West,268,3.0,3.0,62,0.00,,CLR,0.00,506.00,VWS V14.01,2013-01-11 19:42:00,
2013-01-11 11:43:00,49.8,37.3,29.69,SW,223,3.0,5.0,62,0.00,,CLR,0.00,468.00,VWS V14.01,2013-01-11 19:43:00,
2013-01-11 11:44:00,49.9,37.0,29.69,NW,323,3.0,5.0,61,0.00,,CLR,0.00,468.00,VWS V14.01,2013-01-11 19:44:00,
2013-01-11 11:48:00,50.1,37.2,29.69,West,266,0.0,5.0,61,0.00,,CLR,0.00,476.00,VWS V14.01,2013-01-11 19:48:00,
2013-01-11 11:49:00,50.2,37.3,29.69,WSW,250,1.0,5.0,61,0.00,,CLR,0.00,443.00,VWS V14.01,2013-01-11 19:49:00,
2013-01-11 11:50:00,50.2,36.9,29.69,SW,229,3.0,5.0,60,0.00,,CLR,0.00,555.00,VWS V14.01,2013-01-11 19:50:00,
2013-01-11 11:53:00,50.3,37.0,29.69,SSW,194,0.0,3.0,60,0.00,,CLR,0.00,573.00,VWS V14.01,2013-01-11 19:53:00,
2013-01-11 11:54:00,50.3,37.4,29.69,South,185,0.0,3.0,61,0.00,,CLR,0.00,564.00,VWS V14.01,2013-01-11 19:54:00,
2013-01-11 11:58:00,51.0,38.0,29.69,East,90,1.0,3.0,61,0.00,,CLR,0.00,450.00,VWS V14.01,2013-01-11 19:58:00,
2013-01-11 11:59:00,51.2,37.8,29.69,North,355,1.0,3.0,60,0.00,,CLR,0.00,599.00,VWS V14.01,2013-01-11 19:59:00,
2013-01-11 12:00:00,51.4,37.1,29.68,WSW,256,0.0,4.0,58,0.00,,CLR,0.00,599.00,VWS V14.01,2013-01-11 20:00:00,
2013-01-11 12:03:00,51.8,37.1,29.68,NW,306,0.0,3.0,57,0.00,,CLR,0.00,336.00,VWS V14.01,2013-01-11 20:03:00,
2013-01-11 12:04:00,51.9,37.6,29.68,NW,306,0.0,3.0,58,0.00,,CLR,0.00,327.00,VWS V14.01,2013-01-11 20:04:00,
2013-01-11 12:08:00,52.2,36.5,29.68,NW,304,0.0,3.0,55,0.00,,CLR,0.00,325.00,VWS V14.01,2013-01-11 20:08:00,
2013-01-11 12:09:00,52.2,36.5,29.68,NW,304,0.0,3.0,55,0.00,,CLR,0.00,364.00,VWS V14.01,2013-01-11 20:09:00,
2013-01-11 12:10:00,52.3,36.6,29.68,NW,304,0.0,3.0,55,0.00,,CLR,0.00,364.00,VWS V14.01,2013-01-11 20:10:00,
2013-01-11 12:13:00,52.5,36.8,29.67,WNW,292,3.0,3.0,55,0.00,,CLR,0.00,339.00,VWS V14.01,2013-01-11 20:13:00,
2013-01-11 12:14:00,52.4,36.7,29.67,WNW,292,0.0,3.0,55,0.00,,CLR,0.00,339.00,VWS V14.01,2013-01-11 20:14:00,
2013-01-11 12:18:00,52.4,36.3,29.67,WSW,246,0.0,7.0,54,0.00,,CLR,0.00,380.00,VWS V14.01,2013-01-11 20:18:00,
2013-01-11 12:19:00,52.4,36.7,29.67,West,261,1.0,7.0,55,0.00,,CLR,0.00,380.00,VWS V14.01,2013-01-11 20:19:00,
2013-01-11 12:20:00,52.2,36.1,29.67,SW,223,0.0,7.0,54,0.00,,CLR,0.00,404.00,VWS V14.01,2013-01-11 20:20:00,
2013-01-11 12:23:00,52.1,36.4,29.67,WSW,237,0.0,6.0,55,0.00,,CLR,0.00,338.00,VWS V14.01,2013-01-11 20:23:00,
2013-01-11 12:24:00,52.0,35.9,29.67,WSW,238,0.0,6.0,54,0.00,,CLR,0.00,338.00,VWS V14.01,2013-01-11 20:24:00,
2013-01-11 12:28:00,51.8,36.2,29.67,SSW,208,0.0,7.0,55,0.00,,CLR,0.00,334.00,VWS V14.01,2013-01-11 20:28:00,
2013-01-11 12:29:00,51.7,36.1,29.67,WNW,293,2.0,7.0,55,0.00,,CLR,0.00,334.00,VWS V14.01,2013-01-11 20:29:00,
2013-01-11 12:30:00,51.7,36.1,29.67,NW,304,0.0,7.0,55,0.00,,CLR,0.00,366.00,VWS V14.01,2013-01-11 20:30:00,
2013-01-11 12:33:00,51.6,36.0,29.67,WNW,294,1.0,5.0,55,0.00,,CLR,0.00,346.00,VWS V14.01,2013-01-11 20:33:00,
2013-01-11 12:34:00,51.6,36.0,29.67,WSW,243,4.0,5.0,55,0.00,,CLR,0.00,285.00,VWS V14.01,2013-01-11 20:34:00,
2013-01-11 12:38:00,51.4,35.8,29.67,NNE,14,1.0,6.0,55,0.00,,CLR,0.00,281.00,VWS V14.01,2013-01-11 20:38:00,
2013-01-11 12:39:00,51.3,35.7,29.67,North,9,0.0,6.0,55,0.00,,CLR,0.00,534.00,VWS V14.01,2013-01-11 20:39:00,
2013-01-11 12:40:00,51.3,35.7,29.67,SW,225,1.0,6.0,55,0.00,,CLR,0.00,534.00,VWS V14.01,2013-01-11 20:40:00,
2013-01-11 12:44:00,51.3,36.6,29.66,WSW,249,4.0,4.0,57,0.00,,CLR,0.00,575.00,VWS V14.01,2013-01-11 20:44:00,
2013-01-11 12:49:00,51.7,36.5,29.66,WNW,301,0.0,7.0,56,0.00,,CLR,0.00,570.00,VWS V14.01,2013-01-11 20:49:00,
2013-01-11 12:50:00,51.7,36.1,29.66,WNW,302,0.0,7.0,55,0.00,,CLR,0.00,563.00,VWS V14.01,2013-01-11 20:50:00,
2013-01-11 12:54:00,52.1,36.9,29.66,West,273,1.0,12.0,56,0.00,,CLR,0.00,466.00,VWS V14.01,2013-01-11 20:54:00,
2013-01-11 12:55:00,52.1,36.9,29.66,NW,326,4.0,12.0,56,0.00,,CLR,0.00,490.00,VWS V14.01,2013-01-11 20:55:00,
2013-01-11 12:59:00,52.3,36.2,29.65,WNW,296,1.0,12.0,54,0.00,,CLR,0.00,559.00,VWS V14.01,2013-01-11 20:59:00,
2013-01-11 13:00:00,52.4,35.8,29.65,NNE,13,2.0,12.0,53,0.00,,CLR,0.00,559.00,VWS V14.01,2013-01-11 21:00:00,
2013-01-11 13:04:00,52.3,36.2,29.65,WSW,255,2.0,11.0,54,0.00,,CLR,0.00,432.00,VWS V14.01,2013-01-11 21:04:00,
2013-01-11 13:05:00,52.3,36.6,29.65,WSW,242,2.0,11.0,55,0.00,,CLR,0.00,432.00,VWS V14.01,2013-01-11 21:05:00,
2013-01-11 13:09:00,52.4,36.7,29.65,SW,221,0.0,11.0,55,0.00,,CLR,0.00,497.00,VWS V14.01,2013-01-11 21:09:00,
2013-01-11 13:10:00,52.4,37.2,29.65,SW,225,0.0,11.0,56,0.00,,CLR,0.00,497.00,VWS V14.01,2013-01-11 21:10:00,
2013-01-11 13:14:00,52.8,37.5,29.65,West,272,6.0,9.0,56,0.00,,CLR,0.00,489.00,VWS V14.01,2013-01-11 21:14:00,
2013-01-11 13:15:00,52.8,37.5,29.65,SW,223,4.0,9.0,56,0.00,,CLR,0.00,489.00,VWS V14.01,2013-01-11 21:15:00,
2013-01-11 13:19:00,52.9,37.2,29.65,West,259,1.0,9.0,55,0.00,,CLR,0.00,478.00,VWS V14.01,2013-01-11 21:19:00,
2013-01-11 13:20:00,53.0,37.3,29.65,SSW,198,10.0,10.0,55,0.00,,CLR,0.00,485.00,VWS V14.01,2013-01-11 21:20:00,
2013-01-11 13:24:00,53.0,37.3,29.65,NW,321,0.0,10.0,55,0.00,,CLR,0.00,455.00,VWS V14.01,2013-01-11 21:24:00,
2013-01-11 13:25:00,53.0,37.3,29.65,NW,321,1.0,10.0,55,0.00,,CLR,0.00,455.00,VWS V14.01,2013-01-11 21:25:00,
2013-01-11 13:26:00,53.0,37.3,29.64,SW,234,0.0,10.0,55,0.00,,CLR,0.00,529.00,VWS V14.01,2013-01-11 21:26:00,
2013-01-11 13:29:00,53.2,37.0,29.65,SSW,200,6.0,10.0,54,0.00,,CLR,0.00,540.00,VWS V14.01,2013-01-11 21:29:00,
2013-01-11 13:30:00,53.1,36.9,29.65,SW,231,2.0,10.0,54,0.00,,CLR,0.00,540.00,VWS V14.01,2013-01-11 21:30:00,
2013-01-11 13:31:00,53.1,36.9,29.65,WSW,257,0.0,5.0,54,0.00,,CLR,0.00,543.00,VWS V14.01,2013-01-11 21:31:00,
2013-01-11 13:34:00,53.1,36.9,29.65,WNW,290,3.0,6.0,54,0.00,,CLR,0.00,594.00,VWS V14.01,2013-01-11 21:34:00,
2013-01-11 13:35:00,53.0,36.8,29.65,West,269,2.0,6.0,54,0.00,,CLR,0.00,594.00,VWS V14.01,2013-01-11 21:35:00,
2013-01-11 13:36:00,53.0,36.8,29.65,WSW,250,5.0,6.0,54,0.00,,CLR,0.00,621.00,VWS V14.01,2013-01-11 21:36:00,
2013-01-11 13:39:00,53.2,37.5,29.64,NW,309,1.0,7.0,55,0.00,,CLR,0.00,547.00,VWS V14.01,2013-01-11 21:39:00,
2013-01-11 13:40:00,53.3,37.6,29.64,NW,317,0.0,7.0,55,0.00,,CLR,0.00,547.00,VWS V14.01,2013-01-11 21:40:00,
2013-01-11 13:41:00,53.4,38.1,29.64,NNW,338,4.0,6.0,56,0.00,,CLR,0.00,599.00,VWS V14.01,2013-01-11 21:41:00,
2013-01-11 13:44:00,53.8,37.6,29.64,WSW,238,0.0,9.0,54,0.00,,CLR,0.00,638.00,VWS V14.01,2013-01-11 21:44:00,
2013-01-11 13:45:00,53.8,37.6,29.64,SW,235,1.0,9.0,54,0.00,,CLR,0.00,638.00,VWS V14.01,2013-01-11 21:45:00,
2013-01-11 13:46:00,53.9,37.7,29.64,West,262,0.0,9.0,54,0.00,,CLR,0.00,571.00,VWS V14.01,2013-01-11 21:46:00,
2013-01-11 13:49:00,54.0,37.3,29.64,WSW,241,1.0,11.0,53,0.00,,CLR,0.00,364.00,VWS V14.01,2013-01-11 21:49:00,
2013-01-11 13:50:00,54.0,37.3,29.64,SW,229,4.0,5.0,53,0.00,,CLR,0.00,364.00,VWS V14.01,2013-01-11 21:50:00,
2013-01-11 13:51:00,54.0,37.3,29.64,WSW,242,1.0,5.0,53,0.00,,CLR,0.00,455.00,VWS V14.01,2013-01-11 21:51:00,
2013-01-11 13:55:00,53.8,37.1,29.64,WNW,298,3.0,7.0,53,0.00,,CLR,0.00,457.00,VWS V14.01,2013-01-11 21:55:00,
2013-01-11 13:56:00,53.8,37.6,29.64,West,266,0.0,7.0,54,0.00,,CLR,0.00,367.00,VWS V14.01,2013-01-11 21:56:00,
2013-01-11 14:00:00,53.5,37.3,29.64,WNW,303,6.0,10.0,54,0.00,,CLR,0.00,503.00,VWS V14.01,2013-01-11 22:00:00,
2013-01-11 14:01:00,53.2,37.0,29.64,WNW,283,3.0,10.0,54,0.00,,CLR,0.00,436.00,VWS V14.01,2013-01-11 22:01:00,
2013-01-11 14:05:00,53.0,37.7,29.64,NW,314,3.0,10.0,56,0.00,,CLR,0.00,434.00,VWS V14.01,2013-01-11 22:05:00,
2013-01-11 14:06:00,52.8,37.5,29.64,SW,227,11.0,13.0,56,0.00,,CLR,0.00,397.00,VWS V14.01,2013-01-11 22:06:00,
2013-01-11 14:07:00,52.8,37.5,29.64,SSW,212,2.0,13.0,56,0.00,,CLR,0.00,313.00,VWS V14.01,2013-01-11 22:07:00,
2013-01-11 14:10:00,52.7,37.9,29.64,WSW,257,2.0,13.0,57,0.00,,CLR,0.00,220.00,VWS V14.01,2013-01-11 22:10:00,
2013-01-11 14:11:00,52.7,37.5,29.64,NW,321,2.0,6.0,56,0.00,,CLR,0.00,232.00,VWS V14.01,2013-01-11 22:11:00,
2013-01-11 14:12:00,52.7,37.5,29.64,WSW,243,5.0,6.0,56,0.00,,CLR,0.00,244.00,VWS V14.01,2013-01-11 22:12:00,
2013-01-11 14:15:00,52.4,37.6,29.64,NW,309,3.0,9.0,57,0.00,,CLR,0.00,316.00,VWS V14.01,2013-01-11 22:15:00,
2013-01-11 14:16:00,52.2,37.4,29.64,West,279,2.0,9.0,57,0.00,,CLR,0.00,301.00,VWS V14.01,2013-01-11 22:16:00,
2013-01-11 14:17:00,52.1,37.3,29.64,SSW,198,5.0,9.0,57,0.00,,CLR,0.00,306.00,VWS V14.01,2013-01-11 22:17:00,
2013-01-11 14:20:00,51.8,37.9,29.64,West,275,0.0,12.0,59,0.00,,CLR,0.00,246.00,VWS V14.01,2013-01-11 22:20:00,
2013-01-11 14:21:00,51.8,37.9,29.64,West,275,0.0,0.0,59,0.00,,CLR,0.00,287.00,VWS V14.01,2013-01-11 22:21:00,
2013-01-11 14:22:00,51.8,37.9,29.64,NW,313,3.0,3.0,59,0.00,,CLR,0.00,302.00,VWS V14.01,2013-01-11 22:22:00,
2013-01-11 14:25:00,51.8,37.9,29.64,WNW,298,7.0,7.0,59,0.00,,CLR,0.00,283.00,VWS V14.01,2013-01-11 22:25:00,
2013-01-11 14:26:00,51.8,37.9,29.64,WNW,300,6.0,11.0,59,0.00,,CLR,0.00,283.00,VWS V14.01,2013-01-11 22:26:00,
2013-01-11 14:27:00,51.7,37.8,29.64,WSW,255,1.0,11.0,59,0.00,,CLR,0.00,283.00,VWS V14.01,2013-01-11 22:27:00,
2013-01-11 14:30:00,51.6,38.2,29.64,WSW,257,1.0,11.0,60,0.00,,CLR,0.00,401.00,VWS V14.01,2013-01-11 22:30:00,
2013-01-11 14:31:00,51.7,38.3,29.64,WNW,302,0.0,3.0,60,0.00,,CLR,0.00,487.00,VWS V14.01,2013-01-11 22:31:00,
2013-01-11 14:32:00,51.7,38.3,29.64,WNW,302,1.0,3.0,60,0.00,,CLR,0.00,480.00,VWS V14.01,2013-01-11 22:32:00,
2013-01-11 14:35:00,52.1,39.1,29.64,SW,236,3.0,9.0,61,0.00,,CLR,0.00,330.00,VWS V14.01,2013-01-11 22:35:00,
2013-01-11 14:36:00,52.2,38.8,29.64,WSW,242,0.0,9.0,60,0.00,,CLR,0.00,329.00,VWS V14.01,2013-01-11 22:36:00,
2013-01-11 14:37:00,52.3,38.8,29.64,WNW,288,3.0,9.0,60,0.00,,CLR,0.00,387.00,VWS V14.01,2013-01-11 22:37:00,
2013-01-11 14:40:00,52.4,38.5,29.64,West,260,1.0,1.0,59,0.00,,CLR,0.00,510.00,VWS V14.01,2013-01-11 22:40:00,
2013-01-11 14:41:00,52.4,38.5,29.64,WNW,289,5.0,6.0,59,0.00,,CLR,0.00,510.00,VWS V14.01,2013-01-11 22:41:00,
2013-01-11 14:42:00,52.4,38.5,29.64,WNW,297,3.0,6.0,59,0.00,,CLR,0.00,510.00,VWS V14.01,2013-01-11 22:42:00,
2013-01-11 14:45:00,52.4,38.9,29.64,WSW,244,5.0,9.0,60,0.00,,CLR,0.00,244.00,VWS V14.01,2013-01-11 22:45:00,
2013-01-11 14:46:00,52.3,38.4,29.64,NW,315,0.0,9.0,59,0.00,,CLR,0.00,244.00,VWS V14.01,2013-01-11 22:46:00,
2013-01-11 14:47:00,52.3,38.8,29.64,SW,225,2.0,9.0,60,0.00,,CLR,0.00,496.00,VWS V14.01,2013-01-11 22:47:00,
2013-01-11 14:50:00,52.4,38.9,29.64,NW,313,3.0,7.0,60,0.00,,CLR,0.00,288.00,VWS V14.01,2013-01-11 22:50:00,
2013-01-11 14:51:00,52.3,38.8,29.64,West,280,4.0,9.0,60,0.00,,CLR,0.00,359.00,VWS V14.01,2013-01-11 22:51:00,
2013-01-11 14:52:00,52.3,38.8,29.64,SW,227,5.0,10.0,60,0.00,,CLR,0.00,359.00,VWS V14.01,2013-01-11 22:52:00,
2013-01-11 14:56:00,51.9,38.5,29.64,WNW,282,0.0,11.0,60,0.00,,CLR,0.00,193.00,VWS V14.01,2013-01-11 22:56:00,
2013-01-11 14:57:00,51.9,38.5,29.64,WNW,303,4.0,11.0,60,0.00,,CLR,0.00,186.00,VWS V14.01,2013-01-11 22:57:00,
2013-01-11 15:00:00,51.5,38.1,29.64,WNW,294,2.0,11.0,60,0.00,,CLR,0.00,211.00,VWS V14.01,2013-01-11 23:00:00,
2013-01-11 15:01:00,51.4,38.4,29.64,West,269,3.0,11.0,61,0.00,,CLR,0.00,204.00,VWS V14.01,2013-01-11 23:01:00,
2013-01-11 15:02:00,51.3,38.3,29.64,WNW,292,1.0,11.0,61,0.00,,CLR,0.00,197.00,VWS V14.01,2013-01-11 23:02:00,
2013-01-11 15:06:00,50.9,38.4,29.64,West,271,3.0,11.0,62,0.00,,CLR,0.00,190.00,VWS V14.01,2013-01-11 23:06:00,
2013-01-11 15:07:00,50.9,38.4,29.64,NW,326,2.0,11.0,62,0.00,,CLR,0.00,190.00,VWS V14.01,2013-01-11 23:07:00,
2013-01-11 15:10:00,50.8,38.7,29.64,SSW,213,3.0,11.0,63,0.00,,CLR,0.00,392.00,VWS V14.01,2013-01-11 23:10:00,
2013-01-11 15:11:00,50.8,38.7,29.64,West,263,9.0,9.0,63,0.00,,CLR,0.00,186.00,VWS V14.01,2013-01-11 23:11:00,
2013-01-11 15:12:00,50.8,38.7,29.64,West,259,5.0,9.0,63,0.00,,CLR,0.00,183.00,VWS V14.01,2013-01-11 23:12:00,
2013-01-11 15:16:00,50.7,38.6,29.64,WSW,258,3.0,9.0,63,0.00,,CLR,0.00,174.00,VWS V14.01,2013-01-11 23:16:00,
2013-01-11 15:17:00,50.7,38.6,29.64,WSW,247,10.0,10.0,63,0.00,,CLR,0.00,174.00,VWS V14.01,2013-01-11 23:17:00,
2013-01-11 15:20:00,50.7,39.0,29.64,WSW,237,5.0,10.0,64,0.00,,CLR,0.00,381.00,VWS V14.01,2013-01-11 23:20:00,
2013-01-11 15:21:00,50.8,39.1,29.64,South,185,0.0,5.0,64,0.00,,CLR,0.00,169.00,VWS V14.01,2013-01-11 23:21:00,
2013-01-11 15:22:00,50.8,39.1,29.64,South,186,0.0,5.0,64,0.00,,CLR,0.00,169.00,VWS V14.01,2013-01-11 23:22:00,
2013-01-11 15:26:00,51.1,39.4,29.63,WSW,258,5.0,10.0,64,0.00,,CLR,0.00,199.00,VWS V14.01,2013-01-11 23:26:00,
2013-01-11 15:27:00,51.1,39.4,29.63,WSW,243,1.0,10.0,64,0.00,,CLR,0.00,216.00,VWS V14.01,2013-01-11 23:27:00,
2013-01-11 15:30:00,51.2,39.5,29.63,WSW,242,4.0,10.0,64,0.00,,CLR,0.00,123.00,VWS V14.01,2013-01-11 23:30:00,
2013-01-11 15:40:00,50.6,38.9,29.64,WSW,248,3.0,13.0,64,0.00,,CLR,0.00,112.00,VWS V14.01,2013-01-11 23:40:00,
2013-01-11 15:50:00,49.8,38.5,29.63,WNW,292,2.0,10.0,65,0.00,,CLR,0.00,145.00,VWS V14.01,2013-01-11 23:50:00,
2013-01-11 16:00:00,49.4,39.3,29.63,WNW,292,3.0,10.0,68,0.00,,CLR,0.00,116.00,VWS V14.01,2013-01-12 00:00:00,
2013-01-11 16:10:00,49.4,39.3,29.63,West,270,3.0,10.0,68,0.00,,CLR,0.00,113.00,VWS V14.01,2013-01-12 00:10:00,
2013-01-11 16:20:00,49.4,39.3,29.62,NW,315,3.0,11.0,68,0.00,,CLR,0.00,103.00,VWS V14.01,2013-01-12 00:20:00,
2013-01-11 16:30:00,49.3,39.2,29.62,West,270,3.0,13.0,68,0.00,,CLR,0.00,86.00,VWS V14.01,2013-01-12 00:30:00,
2013-01-11 16:40:00,48.7,39.0,29.62,WNW,292,4.0,13.0,69,0.00,,CLR,0.00,44.00,VWS V14.01,2013-01-12 00:40:00,
2013-01-11 16:50:00,47.9,39.0,29.62,WSW,248,3.0,10.0,71,0.00,,CLR,0.00,37.00,VWS V14.01,2013-01-12 00:50:00,
2013-01-11 17:00:00,47.4,39.2,29.62,WSW,248,2.0,7.0,73,0.00,,CLR,0.00,15.00,VWS V14.01,2013-01-12 01:00:00,
2013-01-11 17:10:00,47.0,39.2,29.62,West,270,1.0,8.0,74,0.00,,CLR,0.00,6.00,VWS V14.01,2013-01-12 01:10:00,
2013-01-11 17:20:00,46.6,39.1,29.62,West,270,1.0,5.0,75,0.00,,CLR,0.00,1.00,VWS V14.01,2013-01-12 01:20:00,
2013-01-11 17:30:00,46.2,39.1,29.62,WSW,248,0.0,4.0,76,0.00,,CLR,0.00,0.00,VWS V14.01,2013-01-12 01:30:00,
2013-01-11 17:40:00,45.8,39.3,29.62,WSW,248,0.0,0.0,78,0.00,,CLR,0.00,0.00,VWS V14.01,2013-01-12 01:40:00,
2013-01-11 17:50:00,43.6,39.1,29.62,WSW,250,0.0,0.0,84,0.00,,CLR,0.00,0.00,VWS V14.01,2013-01-12 01:50:00,
2013-01-11 17:59:00,45.8,39.3,29.62,WSW,248,0.0,0.0,78,0.00,,CLR,0.00,0.00,VWS V14.01,2013-01-12 01:59:00,
2013-01-11 18:00:00,44.9,39.4,29.62,WSW,250,0.0,0.0,81,0.00,,CLR,0.00,0.00,VWS V14.01,2013-01-12 02:00:00,
2013-01-11 18:04:00,44.6,39.1,29.62,WSW,250,0.0,0.0,81,0.00,,CLR,0.00,0.00,VWS V14.01,2013-01-12 02:04:00,
2013-01-11 18:09:00,44.4,39.3,29.62,WSW,250,0.0,0.0,82,0.00,,CLR,0.00,0.00,VWS V14.01,2013-01-12 02:09:00,
2013-01-11 18:10:00,44.3,39.2,29.62,WSW,250,0.0,0.0,82,0.00,,CLR,0.00,0.00,VWS V14.01,2013-01-12 02:10:00,
2013-01-11 18:14:00,44.3,39.2,29.62,WSW,250,0.0,0.0,82,0.00,,CLR,0.00,0.00,VWS V14.01,2013-01-12 02:14:00,
2013-01-11 18:15:00,44.3,39.2,29.62,WSW,250,0.0,0.0,82,0.00,,CLR,0.00,0.00,VWS V14.01,2013-01-12 02:15:00,
2013-01-11 18:19:00,44.2,39.1,29.62,WSW,250,0.0,0.0,82,0.00,,CLR,0.00,0.00,VWS V14.01,2013-01-12 02:19:00,
2013-01-11 18:20:00,44.1,39.0,29.62,WSW,250,0.0,0.0,82,0.00,,CLR,0.00,0.00,VWS V14.01,2013-01-12 02:20:00,
2013-01-11 18:24:00,44.0,39.2,29.62,WSW,250,0.0,1.0,83,0.00,,CLR,0.00,0.00,VWS V14.01,2013-01-12 02:24:00,
2013-01-11 18:25:00,44.0,39.2,29.62,WSW,250,0.0,1.0,83,0.00,,CLR,0.00,0.00,VWS V14.01,2013-01-12 02:25:00,
2013-01-11 18:29:00,43.9,39.1,29.62,WSW,250,0.0,1.0,83,0.00,,CLR,0.00,0.00,VWS V14.01,2013-01-12 02:29:00,
2013-01-11 18:30:00,43.9,39.1,29.62,WSW,250,0.0,1.0,83,0.00,,CLR,0.00,0.00,VWS V14.01,2013-01-12 02:30:00,
2013-01-11 18:34:00,43.8,39.3,29.62,WSW,250,0.0,0.0,84,0.00,,CLR,0.00,0.00,VWS V14.01,2013-01-12 02:34:00,
2013-01-11 18:35:00,43.8,39.3,29.62,WSW,250,0.0,0.0,84,0.00,,CLR,0.00,0.00,VWS V14.01,2013-01-12 02:35:00,
2013-01-11 18:39:00,43.7,39.2,29.62,WSW,250,0.0,0.0,84,0.00,,CLR,0.00,0.00,VWS V14.01,2013-01-12 02:39:00,
2013-01-11 18:40:00,43.7,39.2,29.62,WSW,250,0.0,0.0,84,0.00,,CLR,0.00,0.00,VWS V14.01,2013-01-12 02:40:00,
2013-01-11 18:45:00,43.6,39.1,29.62,WSW,250,0.0,0.0,84,0.00,,CLR,0.00,0.00,VWS V14.01,2013-01-12 02:45:00,
2013-01-11 18:50:00,43.6,39.1,29.62,WSW,250,0.0,0.0,84,0.00,,CLR,0.00,0.00,VWS V14.01,2013-01-12 02:50:00,
2013-01-11 18:55:00,43.5,39.3,29.62,WSW,250,0.0,0.0,85,0.00,,CLR,0.00,0.00,VWS V14.01,2013-01-12 02:55:00,
2013-01-11 18:56:00,43.5,39.3,29.62,WSW,250,0.0,0.0,85,0.00,,CLR,0.00,0.00,VWS V14.01,2013-01-12 02:56:00,
2013-01-11 19:00:00,43.4,39.2,29.62,WSW,250,0.0,0.0,85,0.00,,CLR,0.00,0.00,VWS V14.01,2013-01-12 03:00:00,
2013-01-11 19:01:00,43.4,39.2,29.61,WSW,250,0.0,0.0,85,0.00,,CLR,0.00,0.00,VWS V14.01,2013-01-12 03:01:00,
2013-01-11 19:05:00,43.3,39.1,29.62,WSW,250,0.0,1.0,85,0.00,,CLR,0.00,0.00,VWS V14.01,2013-01-12 03:05:00,
2013-01-11 19:06:00,43.3,39.1,29.62,WSW,250,0.0,1.0,85,0.00,,CLR,0.00,0.00,VWS V14.01,2013-01-12 03:06:00,
2013-01-11 19:10:00,43.2,39.0,29.62,WSW,250,0.0,1.0,85,0.00,,CLR,0.00,0.00,VWS V14.01,2013-01-12 03:10:00,
2013-01-11 19:11:00,43.1,38.9,29.62,WSW,250,0.0,0.0,85,0.00,,CLR,0.00,0.00,VWS V14.01,2013-01-12 03:11:00,
2013-01-11 19:15:00,43.1,39.2,29.62,WSW,250,0.0,0.0,86,0.00,,CLR,0.00,0.00,VWS V14.01,2013-01-12 03:15:00,
2013-01-11 19:16:00,43.0,39.1,29.62,WSW,250,0.0,0.0,86,0.00,,CLR,0.00,0.00,VWS V14.01,2013-01-12 03:16:00,
2013-01-11 19:17:00,43.0,39.1,29.62,WSW,250,0.0,0.0,86,0.00,,CLR,0.00,0.00,VWS V14.01,2013-01-12 03:17:00,
2013-01-11 19:20:00,42.9,39.0,29.62,WSW,250,0.0,0.0,86,0.00,,CLR,0.00,0.00,VWS V14.01,2013-01-12 03:20:00,
2013-01-11 19:21:00,42.9,39.0,29.62,WSW,250,0.0,0.0,86,0.00,,CLR,0.00,0.00,VWS V14.01,2013-01-12 03:21:00,
2013-01-11 19:22:00,42.9,39.0,29.62,WSW,250,0.0,0.0,86,0.00,,CLR,0.00,0.00,VWS V14.01,2013-01-12 03:22:00,
2013-01-11 19:25:00,42.8,38.9,29.62,WSW,250,0.0,0.0,86,0.00,,CLR,0.00,0.00,VWS V14.01,2013-01-12 03:25:00,
2013-01-11 19:26:00,42.7,38.8,29.62,WSW,250,0.0,0.0,86,0.00,,CLR,0.00,0.00,VWS V14.01,2013-01-12 03:26:00,
2013-01-11 19:27:00,42.7,38.8,29.62,WSW,250,0.0,0.0,86,0.00,,CLR,0.00,0.00,VWS V14.01,2013-01-12 03:27:00,
2013-01-11 19:30:00,42.7,38.8,29.62,WSW,250,0.0,0.0,86,0.00,,CLR,0.00,0.00,VWS V14.01,2013-01-12 03:30:00,
2013-01-11 19:31:00,42.6,38.7,29.62,WSW,250,0.0,0.0,86,0.00,,CLR,0.00,0.00,VWS V14.01,2013-01-12 03:31:00,
2013-01-11 19:32:00,42.6,38.7,29.62,WSW,250,0.0,0.0,86,0.00,,CLR,0.00,0.00,VWS V14.01,2013-01-12 03:32:00,
2013-01-11 19:35:00,42.5,38.9,29.62,WSW,250,0.0,0.0,87,0.00,,CLR,0.00,0.00,VWS V14.01,2013-01-12 03:35:00,
2013-01-11 19:36:00,42.5,38.9,29.62,WSW,250,0.0,0.0,87,0.00,,CLR,0.00,0.00,VWS V14.01,2013-01-12 03:36:00,
2013-01-11 19:37:00,42.5,38.9,29.62,WSW,250,0.0,0.0,87,0.00,,CLR,0.00,0.00,VWS V14.01,2013-01-12 03:37:00,
2013-01-11 19:40:00,42.5,38.9,29.61,WSW,250,0.0,0.0,87,0.00,,CLR,0.00,0.00,VWS V14.01,2013-01-12 03:40:00,
2013-01-11 19:41:00,42.5,38.9,29.61,WSW,250,0.0,0.0,87,0.00,,CLR,0.00,0.00,VWS V14.01,2013-01-12 03:41:00,
2013-01-11 19:42:00,42.4,38.8,29.62,WSW,250,0.0,0.0,87,0.00,,CLR,0.00,0.00,VWS V14.01,2013-01-12 03:42:00,
2013-01-11 19:43:00,42.4,38.8,29.62,WSW,250,0.0,0.0,87,0.00,,CLR,0.00,0.00,VWS V14.01,2013-01-12 03:43:00,
2013-01-11 19:45:00,42.3,38.7,29.62,WSW,250,0.0,0.0,87,0.00,,CLR,0.00,0.00,VWS V14.01,2013-01-12 03:45:00,
2013-01-11 19:46:00,42.3,38.7,29.62,WSW,250,0.0,0.0,87,0.00,,CLR,0.00,0.00,VWS V14.01,2013-01-12 03:46:00,
2013-01-11 19:47:00,42.3,38.7,29.62,WSW,250,0.0,0.0,87,0.00,,CLR,0.00,0.00,VWS V14.01,2013-01-12 03:47:00,
2013-01-11 19:48:00,42.3,38.7,29.62,WSW,250,0.0,0.0,87,0.00,,CLR,0.00,0.00,VWS V14.01,2013-01-12 03:48:00,
2013-01-11 19:50:00,42.2,38.6,29.62,WSW,250,0.0,0.0,87,0.00,,CLR,0.00,0.00,VWS V14.01,2013-01-12 03:50:00,
2013-01-11 19:51:00,42.2,38.6,29.62,WSW,250,0.0,0.0,87,0.00,,CLR,0.00,0.00,VWS V14.01,2013-01-12 03:51:00,
2013-01-11 19:52:00,42.2,38.6,29.62,WSW,250,0.0,0.0,87,0.00,,CLR,0.00,0.00,VWS V14.01,2013-01-12 03:52:00,
2013-01-11 19:53:00,42.2,38.9,29.62,WSW,250,0.0,0.0,88,0.00,,CLR,0.00,0.00,VWS V14.01,2013-01-12 03:53:00,
2013-01-11 19:55:00,42.2,38.9,29.62,WSW,250,0.0,0.0,88,0.00,,CLR,0.00,0.00,VWS V14.01,2013-01-12 03:55:00,
2013-01-11 19:56:00,42.1,38.8,29.62,WSW,250,0.0,0.0,88,0.00,,CLR,0.00,0.00,VWS V14.01,2013-01-12 03:56:00,
2013-01-11 19:57:00,42.2,38.9,29.62,WSW,250,0.0,0.0,88,0.00,,CLR,0.00,0.00,VWS V14.01,2013-01-12 03:57:00,
2013-01-11 19:58:00,42.1,38.8,29.62,WSW,250,0.0,0.0,88,0.00,,CLR,0.00,0.00,VWS V14.01,2013-01-12 03:58:00,
2013-01-11 20:00:00,42.1,38.8,29.62,WSW,250,0.0,0.0,88,0.00,,CLR,0.00,0.00,VWS V14.01,2013-01-12 04:00:00,
2013-01-11 20:01:00,42.1,38.8,29.62,WSW,250,0.0,0.0,88,0.00,,CLR,0.00,0.00,VWS V14.01,2013-01-12 04:01:00,
2013-01-11 20:02:00,42.1,38.8,29.62,WSW,250,0.0,0.0,88,0.00,,CLR,0.00,0.00,VWS V14.01,2013-01-12 04:02:00,
2013-01-11 20:03:00,42.0,38.7,29.62,WSW,250,0.0,0.0,88,0.00,,CLR,0.00,0.00,VWS V14.01,2013-01-12 04:03:00,
2013-01-11 20:06:00,42.0,38.7,29.62,WSW,250,0.0,0.0,88,0.00,,CLR,0.00,0.00,VWS V14.01,2013-01-12 04:06:00,
2013-01-11 20:07:00,41.9,38.6,29.62,WSW,250,0.0,0.0,88,0.00,,CLR,0.00,0.00,VWS V14.01,2013-01-12 04:07:00,
2013-01-11 20:08:00,41.9,38.6,29.62,WSW,250,0.0,0.0,88,0.00,,CLR,0.00,0.00,VWS V14.01,2013-01-12 04:08:00,
2013-01-11 20:10:00,41.8,38.5,29.62,WSW,250,0.0,0.0,88,0.00,,CLR,0.00,0.00,VWS V14.01,2013-01-12 04:10:00,
2013-01-11 20:11:00,41.8,38.5,29.62,WSW,250,0.0,0.0,88,0.00,,CLR,0.00,0.00,VWS V14.01,2013-01-12 04:11:00,
2013-01-11 20:12:00,41.8,38.5,29.62,WSW,250,0.0,0.0,88,0.00,,CLR,0.00,0.00,VWS V14.01,2013-01-12 04:12:00,
2013-01-11 20:13:00,41.8,38.5,29.62,WSW,250,0.0,0.0,88,0.00,,CLR,0.00,0.00,VWS V14.01,2013-01-12 04:13:00,
2013-01-11 20:16:00,41.7,38.4,29.62,WSW,250,0.0,0.0,88,0.00,,CLR,0.00,0.00,VWS V14.01,2013-01-12 04:16:00,
2013-01-11 20:17:00,41.7,38.4,29.62,WSW,250,0.0,0.0,88,0.00,,CLR,0.00,0.00,VWS V14.01,2013-01-12 04:17:00,
2013-01-11 20:18:00,41.8,38.8,29.62,WSW,250,0.0,0.0,89,0.00,,CLR,0.00,0.00,VWS V14.01,2013-01-12 04:18:00,
2013-01-11 20:20:00,41.8,38.8,29.62,WSW,250,0.0,0.0,89,0.00,,CLR,0.00,0.00,VWS V14.01,2013-01-12 04:20:00,
2013-01-11 20:21:00,41.7,38.4,29.62,WSW,250,0.0,0.0,88,0.00,,CLR,0.00,0.00,VWS V14.01,2013-01-12 04:21:00,
2013-01-11 20:22:00,41.7,38.4,29.62,WSW,250,0.0,0.0,88,0.00,,CLR,0.00,0.00,VWS V14.01,2013-01-12 04:22:00,
2013-01-11 20:24:00,41.7,38.4,29.62,WSW,250,0.0,0.0,88,0.00,,CLR,0.00,0.00,VWS V14.01,2013-01-12 04:24:00,
2013-01-11 20:26:00,41.6,38.3,29.62,WSW,250,0.0,0.0,88,0.00,,CLR,0.00,0.00,VWS V14.01,2013-01-12 04:26:00,
2013-01-11 20:28:00,41.5,38.2,29.62,WSW,250,0.0,0.0,88,0.00,,CLR,0.00,0.00,VWS V14.01,2013-01-12 04:28:00,
2013-01-11 20:29:00,41.5,38.2,29.62,WSW,250,0.0,0.0,88,0.00,,CLR,0.00,0.00,VWS V14.01,2013-01-12 04:29:00,
2013-01-11 20:30:00,41.5,38.2,29.62,WSW,250,0.0,0.0,88,0.00,,CLR,0.00,0.00,VWS V14.01,2013-01-12 04:30:00,
2013-01-11 20:31:00,41.4,38.1,29.62,WSW,250,0.0,0.0,88,0.00,,CLR,0.00,0.00,VWS V14.01,2013-01-12 04:31:00,
2013-01-11 20:32:00,41.3,38.0,29.62,WSW,250,0.0,0.0,88,0.00,,CLR,0.00,0.00,VWS V14.01,2013-01-12 04:32:00,
2013-01-11 20:33:00,41.3,38.0,29.62,WSW,250,0.0,0.0,88,0.00,,CLR,0.00,0.00,VWS V14.01,2013-01-12 04:33:00,
2013-01-11 20:34:00,41.3,38.3,29.62,WSW,250,0.0,0.0,89,0.00,,CLR,0.00,0.00,VWS V14.01,2013-01-12 04:34:00,
2013-01-11 20:36:00,41.2,38.2,29.62,WSW,250,0.0,0.0,89,0.00,,CLR,0.00,0.00,VWS V14.01,2013-01-12 04:36:00,
2013-01-11 20:37:00,41.2,38.2,29.62,WSW,250,0.0,0.0,89,0.00,,CLR,0.00,0.00,VWS V14.01,2013-01-12 04:37:00,
2013-01-11 20:38:00,41.2,38.2,29.62,WSW,250,0.0,0.0,89,0.00,,CLR,0.00,0.00,VWS V14.01,2013-01-12 04:38:00,
2013-01-11 20:39:00,41.2,38.2,29.62,WSW,250,0.0,0.0,89,0.00,,CLR,0.00,0.00,VWS V14.01,2013-01-12 04:39:00,
2013-01-11 20:40:00,41.1,38.1,29.62,WSW,250,0.0,0.0,89,0.00,,CLR,0.00,0.00,VWS V14.01,2013-01-12 04:40:00,
2013-01-11 20:41:00,41.1,38.1,29.62,WSW,250,0.0,0.0,89,0.00,,CLR,0.00,0.00,VWS V14.01,2013-01-12 04:41:00,
2013-01-11 20:42:00,41.1,38.1,29.62,WSW,250,0.0,0.0,89,0.00,,CLR,0.00,0.00,VWS V14.01,2013-01-12 04:42:00,
2013-01-11 20:43:00,41.1,38.1,29.62,WSW,250,0.0,0.0,89,0.00,,CLR,0.00,0.00,VWS V14.01,2013-01-12 04:43:00,
2013-01-11 20:44:00,41.0,38.0,29.62,WSW,250,0.0,0.0,89,0.00,,CLR,0.00,0.00,VWS V14.01,2013-01-12 04:44:00,
2013-01-11 20:46:00,40.9,37.9,29.62,WSW,250,0.0,0.0,89,0.00,,CLR,0.00,0.00,VWS V14.01,2013-01-12 04:46:00,
2013-01-11 20:47:00,40.9,37.9,29.62,WSW,250,0.0,0.0,89,0.00,,CLR,0.00,0.00,VWS V14.01,2013-01-12 04:47:00,
2013-01-11 20:48:00,40.8,37.8,29.62,WSW,250,1.0,1.0,89,0.00,,CLR,0.00,0.00,VWS V14.01,2013-01-12 04:48:00,
2013-01-11 20:49:00,40.8,37.8,29.62,WSW,250,0.0,1.0,89,0.00,,CLR,0.00,0.00,VWS V14.01,2013-01-12 04:49:00,
2013-01-11 20:50:00,40.8,37.8,29.62,WSW,250,0.0,1.0,89,0.00,,CLR,0.00,0.00,VWS V14.01,2013-01-12 04:50:00,
2013-01-11 20:52:00,40.7,38.0,29.62,WSW,250,0.0,0.0,90,0.00,,CLR,0.00,0.00,VWS V14.01,2013-01-12 04:52:00,
2013-01-11 20:53:00,40.6,37.9,29.62,WSW,250,0.0,1.0,90,0.00,,CLR,0.00,0.00,VWS V14.01,2013-01-12 04:53:00,
2013-01-11 20:54:00,40.6,37.9,29.62,WSW,250,0.0,1.0,90,0.00,,CLR,0.00,0.00,VWS V14.01,2013-01-12 04:54:00,
2013-01-11 20:57:00,40.5,37.8,29.62,WSW,250,0.0,1.0,90,0.00,,CLR,0.00,0.00,VWS V14.01,2013-01-12 04:57:00,
2013-01-11 20:58:00,40.5,37.8,29.62,WSW,250,0.0,1.0,90,0.00,,CLR,0.00,0.00,VWS V14.01,2013-01-12 04:58:00,
2013-01-11 20:59:00,40.5,37.8,29.62,WSW,250,0.0,1.0,90,0.00,,CLR,0.00,0.00,VWS V14.01,2013-01-12 04:59:00,
2013-01-11 21:00:00,40.5,37.8,29.62,WSW,250,0.0,1.0,90,0.00,,CLR,0.00,0.00,VWS V14.01,2013-01-12 05:00:00,
2013-01-11 21:02:00,40.4,37.7,29.62,WSW,250,0.0,0.0,90,0.00,,CLR,0.00,0.00,VWS V14.01,2013-01-12 05:02:00,
2013-01-11 21:05:00,40.2,37.5,29.62,WSW,250,0.0,0.0,90,0.00,,CLR,0.00,0.00,VWS V14.01,2013-01-12 05:05:00,
2013-01-11 21:07:00,40.1,37.4,29.62,WSW,250,0.0,0.0,90,0.00,,CLR,0.00,0.00,VWS V14.01,2013-01-12 05:07:00,
2013-01-11 21:10:00,40.0,37.3,29.62,WSW,250,0.0,0.0,90,0.00,,CLR,0.00,0.00,VWS V14.01,2013-01-12 05:10:00,
2013-01-11 21:12:00,39.8,37.1,29.62,NW,316,1.0,2.0,90,0.00,,CLR,0.00,0.00,VWS V14.01,2013-01-12 05:12:00,
2013-01-11 21:15:00,39.8,37.4,29.62,NW,316,0.0,2.0,91,0.00,,CLR,0.00,0.00,VWS V14.01,2013-01-12 05:15:00,
2013-01-11 21:17:00,39.8,37.4,29.63,NW,316,0.0,2.0,91,0.00,,CLR,0.00,0.00,VWS V14.01,2013-01-12 05:17:00,
2013-01-11 21:20:00,39.7,37.3,29.63,NW,316,0.0,2.0,91,0.00,,CLR,0.00,0.00,VWS V14.01,2013-01-12 05:20:00,
2013-01-11 21:21:00,39.8,37.4,29.63,NW,316,0.0,1.0,91,0.00,,CLR,0.00,0.00,VWS V14.01,2013-01-12 05:21:00,
2013-01-11 21:23:00,39.8,37.4,29.63,NW,316,0.0,1.0,91,0.00,,CLR,0.00,0.00,VWS V14.01,2013-01-12 05:23:00,
2013-01-11 21:25:00,39.7,37.3,29.63,NW,316,1.0,1.0,91,0.00,,CLR,0.00,0.00,VWS V14.01,2013-01-12 05:25:00,
2013-01-11 21:26:00,39.7,37.3,29.63,NW,316,0.0,1.0,91,0.00,,CLR,0.00,0.00,VWS V14.01,2013-01-12 05:26:00,
2013-01-11 21:28:00,39.7,37.3,29.63,NW,316,0.0,1.0,91,0.00,,CLR,0.00,0.00,VWS V14.01,2013-01-12 05:28:00,
2013-01-11 21:30:00,39.6,37.2,29.63,NW,316,1.0,1.0,91,0.00,,CLR,0.00,0.00,VWS V14.01,2013-01-12 05:30:00,
2013-01-11 21:31:00,39.6,37.2,29.63,NW,316,1.0,2.0,91,0.00,,CLR,0.00,0.00,VWS V14.01,2013-01-12 05:31:00,
2013-01-11 21:33:00,39.6,37.2,29.63,NW,317,0.0,2.0,91,0.00,,CLR,0.00,0.00,VWS V14.01,2013-01-12 05:33:00,
2013-01-11 21:35:00,39.6,37.2,29.63,NW,317,0.0,2.0,91,0.00,,CLR,0.00,0.00,VWS V14.01,2013-01-12 05:35:00,
2013-01-11 21:36:00,39.5,37.1,29.63,NW,317,0.0,2.0,91,0.00,,CLR,0.00,0.00,VWS V14.01,2013-01-12 05:36:00,
2013-01-11 21:38:00,39.5,37.1,29.63,NW,317,0.0,2.0,91,0.00,,CLR,0.00,0.00,VWS V14.01,2013-01-12 05:38:00,
2013-01-11 21:40:00,39.5,37.1,29.63,NW,317,0.0,2.0,91,0.00,,CLR,0.00,0.00,VWS V14.01,2013-01-12 05:40:00,
2013-01-11 21:41:00,39.4,37.0,29.63,NW,316,0.0,0.0,91,0.00,,CLR,0.00,0.00,VWS V14.01,2013-01-12 05:41:00,
2013-01-11 21:42:00,39.4,37.0,29.63,NW,317,0.0,0.0,91,0.00,,CLR,0.00,0.00,VWS V14.01,2013-01-12 05:42:00,
2013-01-11 21:43:00,39.4,37.0,29.63,NW,316,0.0,0.0,91,0.00,,CLR,0.00,0.00,VWS V14.01,2013-01-12 05:43:00,
2013-01-11 21:45:00,39.3,36.9,29.63,NW,317,0.0,1.0,91,0.00,,CLR,0.00,0.00,VWS V14.01,2013-01-12 05:45:00,
2013-01-11 21:46:00,39.3,36.9,29.63,NW,317,0.0,1.0,91,0.00,,CLR,0.00,0.00,VWS V14.01,2013-01-12 05:46:00,
2013-01-11 21:47:00,39.3,36.9,29.63,NW,317,0.0,1.0,91,0.00,,CLR,0.00,0.00,VWS V14.01,2013-01-12 05:47:00,
2013-01-11 21:48:00,39.2,36.8,29.63,NW,316,0.0,1.0,91,0.00,,CLR,0.00,0.00,VWS V14.01,2013-01-12 05:48:00,
2013-01-11 21:50:00,39.2,36.8,29.63,NW,317,0.0,1.0,91,0.00,,CLR,0.00,0.00,VWS V14.01,2013-01-12 05:50:00,
2013-01-11 21:51:00,39.2,36.8,29.63,NW,316,0.0,0.0,91,0.00,,CLR,0.00,0.00,VWS V14.01,2013-01-12 05:51:00,
2013-01-11 21:52:00,39.2,36.8,29.63,NW,317,0.0,0.0,91,0.00,,CLR,0.00,0.00,VWS V14.01,2013-01-12 05:52:00,
2013-01-11 21:53:00,39.1,36.7,29.63,NW,317,0.0,0.0,91,0.00,,CLR,0.00,0.00,VWS V14.01,2013-01-12 05:53:00,
2013-01-11 21:55:00,39.1,36.7,29.63,NW,316,0.0,0.0,91,0.00,,CLR,0.00,0.00,VWS V14.01,2013-01-12 05:55:00,
2013-01-11 21:56:00,39.0,36.6,29.63,NW,317,0.0,0.0,91,0.00,,CLR,0.00,0.00,VWS V14.01,2013-01-12 05:56:00,
2013-01-11 21:57:00,39.0,36.6,29.63,NW,317,0.0,0.0,91,0.00,,CLR,0.00,0.00,VWS V14.01,2013-01-12 05:57:00,
2013-01-11 21:58:00,39.0,36.6,29.63,NW,316,0.0,0.0,91,0.00,,CLR,0.00,0.00,VWS V14.01,2013-01-12 05:58:00,
2013-01-11 22:00:00,38.9,36.5,29.63,NW,316,0.0,0.0,91,0.00,,CLR,0.00,0.00,VWS V14.01,2013-01-12 06:00:00,
2013-01-11 22:01:00,38.9,36.5,29.63,NW,317,0.0,0.0,91,0.00,,CLR,0.00,0.00,VWS V14.01,2013-01-12 06:01:00,
2013-01-11 22:02:00,38.9,36.8,29.62,NW,316,0.0,1.0,92,0.00,,CLR,0.00,0.00,VWS V14.01,2013-01-12 06:02:00,
2013-01-11 22:03:00,38.9,36.8,29.62,NW,316,0.0,1.0,92,0.00,,CLR,0.00,0.00,VWS V14.01,2013-01-12 06:03:00,
2013-01-11 22:06:00,38.9,36.8,29.62,NW,317,0.0,1.0,92,0.00,,CLR,0.00,0.00,VWS V14.01,2013-01-12 06:06:00,
2013-01-11 22:07:00,38.9,36.8,29.63,NW,316,0.0,1.0,92,0.00,,CLR,0.00,0.00,VWS V14.01,2013-01-12 06:07:00,
2013-01-11 22:08:00,38.9,36.8,29.63,NW,317,0.0,1.0,92,0.00,,CLR,0.00,0.00,VWS V14.01,2013-01-12 06:08:00,
2013-01-11 22:10:00,38.9,36.8,29.63,NW,316,0.0,1.0,92,0.00,,CLR,0.00,0.00,VWS V14.01,2013-01-12 06:10:00,
2013-01-11 22:11:00,38.9,36.8,29.63,NW,317,0.0,0.0,92,0.00,,CLR,0.00,0.00,VWS V14.01,2013-01-12 06:11:00,
2013-01-11 22:13:00,38.9,36.8,29.63,NW,316,0.0,0.0,92,0.00,,CLR,0.00,0.00,VWS V14.01,2013-01-12 06:13:00,
2013-01-11 22:16:00,38.8,36.7,29.63,NW,316,0.0,0.0,92,0.00,,CLR,0.00,0.00,VWS V14.01,2013-01-12 06:16:00,
2013-01-11 22:18:00,38.8,36.7,29.63,NW,316,0.0,0.0,92,0.00,,CLR,0.00,0.00,VWS V14.01,2013-01-12 06:18:00,
2013-01-11 22:20:00,38.7,36.6,29.63,NW,317,0.0,0.0,92,0.00,,CLR,0.00,0.00,VWS V14.01,2013-01-12 06:20:00,
2013-01-11 22:21:00,38.7,36.6,29.63,NW,317,0.0,0.0,92,0.00,,CLR,0.00,0.00,VWS V14.01,2013-01-12 06:21:00,
2013-01-11 22:23:00,38.6,36.2,29.63,NW,317,0.0,0.0,91,0.00,,CLR,0.00,0.00,VWS V14.01,2013-01-12 06:23:00,
2013-01-11 22:24:00,38.6,36.2,29.62,NW,316,0.0,0.0,91,0.00,,CLR,0.00,0.00,VWS V14.01,2013-01-12 06:24:00,
2013-01-11 22:26:00,38.4,36.0,29.62,NW,317,0.0,0.0,91,0.00,,CLR,0.00,0.00,VWS V14.01,2013-01-12 06:26:00,
2013-01-11 22:28:00,38.4,36.0,29.62,NW,316,0.0,1.0,91,0.00,,CLR,0.00,0.00,VWS V14.01,2013-01-12 06:28:00,
2013-01-11 22:29:00,38.3,35.9,29.62,NW,317,1.0,1.0,91,0.00,,CLR,0.00,0.00,VWS V14.01,2013-01-12 06:29:00,
2013-01-11 22:30:00,38.2,35.8,29.63,NW,317,0.0,1.0,91,0.00,,CLR,0.00,0.00,VWS V14.01,2013-01-12 06:30:00,
2013-01-11 22:31:00,38.2,35.8,29.63,NW,316,0.0,1.0,91,0.00,,CLR,0.00,0.00,VWS V14.01,2013-01-12 06:31:00,
2013-01-11 22:32:00,38.2,36.1,29.63,NW,317,0.0,1.0,92,0.00,,CLR,0.00,0.00,VWS V14.01,2013-01-12 06:32:00,
2013-01-11 22:33:00,38.2,36.1,29.63,NW,317,0.0,1.0,92,0.00,,CLR,0.00,0.00,VWS V14.01,2013-01-12 06:33:00,
2013-01-11 22:34:00,38.2,36.1,29.63,NW,317,0.0,1.0,92,0.00,,CLR,0.00,0.00,VWS V14.01,2013-01-12 06:34:00,
2013-01-11 22:36:00,38.2,36.1,29.63,NW,316,0.0,1.0,92,0.00,,CLR,0.00,0.00,VWS V14.01,2013-01-12 06:36:00,
2013-01-11 22:37:00,38.2,36.1,29.63,NW,317,0.0,2.0,92,0.00,,CLR,0.00,0.00,VWS V14.01,2013-01-12 06:37:00,
2013-01-11 22:38:00,38.2,36.1,29.64,NW,317,0.0,2.0,92,0.00,,CLR,0.00,0.00,VWS V14.01,2013-01-12 06:38:00,
2013-01-11 22:39:00,38.2,36.1,29.64,NW,317,0.0,2.0,92,0.00,,CLR,0.00,0.00,VWS V14.01,2013-01-12 06:39:00,
2013-01-11 22:40:00,38.2,36.1,29.64,NW,323,0.0,2.0,92,0.00,,CLR,0.00,0.00,VWS V14.01,2013-01-12 06:40:00,
2013-01-11 22:41:00,38.3,36.5,29.64,NW,323,0.0,1.0,93,0.01,,CLR,0.01,0.00,VWS V14.01,2013-01-12 06:41:00,
2013-01-11 22:42:00,38.4,36.6,29.64,NW,323,0.0,2.0,93,0.01,,CLR,0.01,0.00,VWS V14.01,2013-01-12 06:42:00,
2013-01-11 22:43:00,38.5,36.7,29.64,NW,326,2.0,3.0,93,0.01,,CLR,0.01,0.00,VWS V14.01,2013-01-12 06:43:00,
2013-01-11 22:44:00,38.7,36.8,29.64,NNW,328,0.0,3.0,93,0.01,,CLR,0.01,0.00,VWS V14.01,2013-01-12 06:44:00,
2013-01-11 22:46:00,38.9,37.3,29.64,North,355,0.0,4.0,94,0.01,,CLR,0.01,0.00,VWS V14.01,2013-01-12 06:46:00,
2013-01-11 22:47:00,39.1,37.5,29.64,North,355,0.0,4.0,94,0.01,,CLR,0.01,0.00,VWS V14.01,2013-01-12 06:47:00,
2013-01-11 22:48:00,39.2,37.6,29.64,North,5,0.0,4.0,94,0.01,,CLR,0.01,0.00,VWS V14.01,2013-01-12 06:48:00,
2013-01-11 22:49:00,39.3,37.5,29.64,North,5,0.0,4.0,93,0.01,,CLR,0.01,0.00,VWS V14.01,2013-01-12 06:49:00,
2013-01-11 22:50:00,39.4,37.5,29.64,NNW,348,3.0,4.0,93,0.01,,CLR,0.01,0.00,VWS V14.01,2013-01-12 06:50:00,
2013-01-11 22:51:00,39.4,37.5,29.64,NNW,348,0.0,3.0,93,0.01,,CLR,0.01,0.00,VWS V14.01,2013-01-12 06:51:00,
2013-01-11 22:52:00,39.5,37.7,29.64,NNW,348,0.0,3.0,93,0.01,,CLR,0.01,0.00,VWS V14.01,2013-01-12 06:52:00,
2013-01-11 22:53:00,39.5,37.7,29.64,NNW,348,0.0,3.0,93,0.01,,CLR,0.01,0.00,VWS V14.01,2013-01-12 06:53:00,
2013-01-11 22:54:00,39.4,37.3,29.64,NNW,348,0.0,3.0,92,0.01,,CLR,0.01,0.00,VWS V14.01,2013-01-12 06:54:00,
2013-01-11 22:56:00,39.3,37.2,29.64,NNW,348,0.0,3.0,92,0.01,,CLR,0.01,0.00,VWS V14.01,2013-01-12 06:56:00,
2013-01-11 22:57:00,39.3,37.2,29.64,NNW,348,0.0,3.0,92,0.01,,CLR,0.01,0.00,VWS V14.01,2013-01-12 06:57:00,
2013-01-11 22:58:00,39.2,37.1,29.64,NNW,348,0.0,3.0,92,0.01,,CLR,0.01,0.00,VWS V14.01,2013-01-12 06:58:00,
2013-01-11 22:59:00,39.2,37.1,29.63,NNW,348,0.0,3.0,92,0.01,,CLR,0.01,0.00,VWS V14.01,2013-01-12 06:59:00,
2013-01-11 23:00:00,39.1,37.0,29.63,NNW,347,0.0,3.0,92,0.01,,CLR,0.01,0.00,VWS V14.01,2013-01-12 07:00:00,
2013-01-11 23:01:00,39.1,37.0,29.64,NNW,347,0.0,2.0,92,0.01,,CLR,0.01,0.00,VWS V14.01,2013-01-12 07:01:00,
2013-01-11 23:02:00,39.1,37.0,29.64,NNW,347,0.0,2.0,92,0.01,,CLR,0.01,0.00,VWS V14.01,2013-01-12 07:02:00,
2013-01-11 23:03:00,39.1,37.2,29.64,NNW,347,0.0,2.0,93,0.01,,CLR,0.01,0.00,VWS V14.01,2013-01-12 07:03:00,
2013-01-11 23:04:00,39.1,37.2,29.64,NNW,347,0.0,2.0,93,0.01,,CLR,0.01,0.00,VWS V14.01,2013-01-12 07:04:00,
2013-01-11 23:07:00,39.1,37.2,29.63,NNW,347,0.0,2.0,93,0.01,,CLR,0.01,0.00,VWS V14.01,2013-01-12 07:07:00,
2013-01-11 23:08:00,39.1,37.2,29.63,NNW,347,1.0,2.0,93,0.01,,CLR,0.01,0.00,VWS V14.01,2013-01-12 07:08:00,
2013-01-11 23:09:00,39.1,37.2,29.63,NNW,347,0.0,2.0,93,0.01,,CLR,0.01,0.00,VWS V14.01,2013-01-12 07:09:00,
2013-01-11 23:10:00,39.1,37.2,29.63,NNW,347,0.0,2.0,93,0.01,,CLR,0.01,0.00,VWS V14.01,2013-01-12 07:10:00,
2013-01-11 23:12:00,39.2,37.3,29.63,NNW,347,0.0,0.0,93,0.01,,CLR,0.01,0.00,VWS V14.01,2013-01-12 07:12:00,
2013-01-11 23:13:00,39.2,37.3,29.63,NNW,347,0.0,0.0,93,0.01,,CLR,0.01,0.00,VWS V14.01,2013-01-12 07:13:00,
2013-01-11 23:14:00,39.2,37.3,29.63,NNW,347,0.0,0.0,93,0.01,,CLR,0.01,0.00,VWS V14.01,2013-01-12 07:14:00,
2013-01-11 23:17:00,39.2,37.3,29.63,NNW,347,0.0,1.0,93,0.01,,CLR,0.01,0.00,VWS V14.01,2013-01-12 07:17:00,
2013-01-11 23:18:00,39.3,37.5,29.63,NNW,347,0.0,2.0,93,0.01,,CLR,0.01,0.00,VWS V14.01,2013-01-12 07:18:00,
2013-01-11 23:19:00,39.3,37.5,29.63,NNW,347,0.0,2.0,93,0.01,,CLR,0.01,0.00,VWS V14.01,2013-01-12 07:19:00,
2013-01-11 23:20:00,39.4,37.5,29.63,NNW,347,0.0,2.0,93,0.01,,CLR,0.01,0.00,VWS V14.01,2013-01-12 07:20:00,
2013-01-11 23:22:00,39.5,37.7,29.63,WNW,296,3.0,4.0,93,0.01,,CLR,0.01,0.00,VWS V14.01,2013-01-12 07:22:00,
2013-01-11 23:23:00,39.6,37.8,29.63,WSW,244,1.0,4.0,93,0.01,,CLR,0.01,0.00,VWS V14.01,2013-01-12 07:23:00,
2013-01-11 23:24:00,39.6,37.8,29.63,WSW,237,4.0,5.0,93,0.01,,CLR,0.01,0.00,VWS V14.01,2013-01-12 07:24:00,
2013-01-11 23:27:00,39.7,37.6,29.64,West,279,2.0,5.0,92,0.01,,CLR,0.01,0.00,VWS V14.01,2013-01-12 07:27:00,
2013-01-11 23:28:00,39.7,37.6,29.63,West,279,0.0,5.0,92,0.01,,CLR,0.01,0.00,VWS V14.01,2013-01-12 07:28:00,
2013-01-11 23:29:00,39.7,37.6,29.64,West,279,0.0,5.0,92,0.01,,CLR,0.01,0.00,VWS V14.01,2013-01-12 07:29:00,
2013-01-11 23:30:00,39.7,37.6,29.64,West,279,0.0,5.0,92,0.01,,CLR,0.01,0.00,VWS V14.01,2013-01-12 07:30:00,
2013-01-11 23:32:00,39.7,37.6,29.64,West,279,0.0,1.0,92,0.01,,CLR,0.01,0.00,VWS V14.01,2013-01-12 07:32:00,
2013-01-11 23:33:00,39.7,37.6,29.64,West,279,0.0,1.0,92,0.01,,CLR,0.01,0.00,VWS V14.01,2013-01-12 07:33:00,
2013-01-11 23:34:00,39.7,37.6,29.64,West,279,0.0,1.0,92,0.01,,CLR,0.01,0.00,VWS V14.01,2013-01-12 07:34:00,
2013-01-11 23:37:00,39.6,37.5,29.64,West,279,0.0,1.0,92,0.01,,CLR,0.01,0.00,VWS V14.01,2013-01-12 07:37:00,
2013-01-11 23:38:00,39.6,37.5,29.64,West,279,0.0,1.0,92,0.01,,CLR,0.01,0.00,VWS V14.01,2013-01-12 07:38:00,
2013-01-11 23:39:00,39.6,37.5,29.64,West,279,0.0,1.0,92,0.01,,CLR,0.01,0.00,VWS V14.01,2013-01-12 07:39:00,
2013-01-11 23:40:00,39.6,37.5,29.64,West,279,0.0,1.0,92,0.01,,CLR,0.01,0.00,VWS V14.01,2013-01-12 07:40:00,
2013-01-11 23:42:00,39.5,37.4,29.64,West,279,0.0,0.0,92,0.01,,CLR,0.01,0.00,VWS V14.01,2013-01-12 07:42:00,
2013-01-11 23:43:00,39.5,37.4,29.64,West,279,0.0,0.0,92,0.01,,CLR,0.01,0.00,VWS V14.01,2013-01-12 07:43:00,
2013-01-11 23:44:00,39.4,37.3,29.64,West,279,0.0,0.0,92,0.01,,CLR,0.01,0.00,VWS V14.01,2013-01-12 07:44:00,
2013-01-11 23:47:00,39.2,37.1,29.64,West,279,0.0,0.0,92,0.01,,CLR,0.01,0.00,VWS V14.01,2013-01-12 07:47:00,
2013-01-11 23:48:00,39.2,37.1,29.64,West,279,0.0,0.0,92,0.01,,CLR,0.01,0.00,VWS V14.01,2013-01-12 07:48:00,
2013-01-11 23:49:00,39.2,37.1,29.64,West,279,0.0,0.0,92,0.01,,CLR,0.01,0.00,VWS V14.01,2013-01-12 07:49:00,
2013-01-11 23:50:00,39.1,36.7,29.64,West,279,0.0,0.0,91,0.01,,CLR,0.01,0.00,VWS V14.01,2013-01-12 07:50:00,
2013-01-11 23:52:00,38.9,36.8,29.64,West,279,0.0,0.0,92,0.00,,CLR,0.01,0.00,VWS V14.01,2013-01-12 07:52:00,
2013-01-11 23:53:00,38.9,36.8,29.64,West,279,0.0,0.0,92,0.00,,CLR,0.01,0.00,VWS V14.01,2013-01-12 07:53:00,
2013-01-11 23:54:00,38.8,36.7,29.64,West,279,0.0,0.0,92,0.00,,CLR,0.01,0.00,VWS V14.01,2013-01-12 07:54:00,
2013-01-11 23:57:00,38.7,36.6,29.64,West,279,0.0,1.0,92,0.00,,CLR,0.01,0.00,VWS V14.01,2013-01-12 07:57:00,
2013-01-11 23:58:00,38.7,36.6,29.64,West,279,0.0,1.0,92,0.00,,CLR,0.01,0.00,VWS V14.01,2013-01-12 07:58:00,
2013-01-11 23:59:00,38.7,36.6,29.64,West,279,0.0,1.0,92,0.00,,CLR,0.01,0.00,VWS V14.01,2013-01-12 07:59:00,